RWH galleries on this site | all RWH holiday snaps | RWH home
 

Roger Haworth's archive of transparencies

An alternative view of these albums on flickr.   Re-scan flickr to synchronise.

Scotland 1959
2017-06-07 14:48:49 Fr:00605 Sq:00605
2017-06-07 14:48:48 Fr:00606 Sq:00606
2017-06-07 14:49:16 Fr:00607 Sq:00607
2017-06-07 14:49:15 Fr:00608 Sq:00608
2017-06-07 14:49:14 Fr:00609 Sq:00609
2017-06-07 14:49:14 Fr:00610 Sq:00610
2017-06-07 14:49:13 Fr:00611 Sq:00611
2017-06-07 14:48:47 Fr:00612 Sq:00612
2017-06-07 14:49:12 Fr:00613 Sq:00613
2017-06-07 14:49:12 Fr:00614 Sq:00614
2017-06-07 14:49:11 Fr:00615 Sq:00615
2017-06-07 14:49:10 Fr:00616 Sq:00616
2017-06-07 14:48:46 Fr:00617 Sq:00617
2017-06-07 14:49:10 Fr:00618 Sq:00618
2017-06-07 14:48:45 Fr:00619 Sq:00619
2017-06-07 14:49:17 Fr:006mh Sq:006mh
2017-06-07 14:48:51 Fr:006x1 Sq:006x1
2017-06-07 14:48:50 Fr:006x2 Sq:006x2
2017-06-07 14:49:09 Fr:00701 Sq:00701
2017-06-07 14:49:08 Fr:00702 Sq:00702
2017-06-07 14:49:08 Fr:00703 Sq:00703
2017-06-07 14:49:07 Fr:00704 Sq:00704
2017-06-07 14:49:06 Fr:00705 Sq:00705
2017-06-07 14:48:44 Fr:00706 Sq:00706
2017-06-07 14:49:06 Fr:00707 Sq:00707
2017-06-07 14:49:05 Fr:00708 Sq:00708
2017-06-07 14:49:05 Fr:00709 Sq:00709
2017-06-07 14:48:43 Fr:00710 Sq:00710
2017-06-07 14:49:04 Fr:00711 Sq:00711
2017-06-07 14:49:03 Fr:00712 Sq:00712
2017-06-07 14:49:03 Fr:00713 Sq:00713
2017-06-07 14:49:02 Fr:00714 Sq:00714
2017-06-07 14:49:01 Fr:00715 Sq:00715
2017-06-07 14:49:01 Fr:00716 Sq:00716
2017-06-07 14:48:43 Fr:00717 Sq:00717
2017-06-07 14:49:00 Fr:00718 Sq:00718
2017-06-07 14:48:59 Fr:00719 Sq:00719
2017-06-07 14:48:59 Fr:00720 Sq:00720
2017-06-07 14:48:58 Fr:00721 Sq:00721
2017-06-07 14:48:42 Fr:00722 Sq:00722
2017-06-07 14:48:58 Fr:00723 Sq:00723
2017-06-07 14:48:57 Fr:00724 Sq:00724
2017-06-07 14:48:56 Fr:00725 Sq:00725
2017-06-07 14:48:41 Fr:00726 Sq:00726
2017-06-07 14:48:55 Fr:00727 Sq:00727
2017-06-07 14:48:55 Fr:00728 Sq:00728
2017-06-07 14:48:54 Fr:00729 Sq:00729
2017-06-07 14:48:53 Fr:00730 Sq:00730
2017-06-07 14:48:53 Fr:00731 Sq:00731
2017-06-08 20:27:43 Fr:00731cr Sq:00731cr
2017-06-07 14:48:52 Fr:00732 Sq:00732
2017-06-07 14:48:51 Fr:00733 Sq:00733
2017-06-07 14:48:40 Fr:00734 Sq:00734
2017-06-07 14:49:17 Fr:00735 Sq:00735
2017-06-07 14:48:50 Fr:007ix Sq:007ix
2017-06-07 14:48:50 Fr:007xx Sq:007xx

London 1961
2017-06-01 23:30:14 Fr:02501 Sq:02501
2017-06-01 23:30:13 Fr:02503 Sq:02503
2017-06-01 23:30:11 Fr:02504 Sq:02504
2017-06-01 23:30:10 Fr:02506 Sq:02506
2017-06-01 23:30:09 Fr:02507 Sq:02507
2017-06-01 23:30:08 Fr:02508 Sq:02508
2017-06-01 23:29:55 Fr:02509 Sq:02509
2017-06-01 23:30:04 Fr:02511 Sq:02511
2017-06-01 23:29:54 Fr:02512 Sq:02512
2017-06-01 23:29:53 Fr:02513 Sq:02513
2017-06-01 23:30:03 Fr:02514 Sq:02514
2017-06-01 23:30:02 Fr:02515 Sq:02515
2017-06-01 23:30:01 Fr:02516 Sq:02516
2017-06-01 23:29:52 Fr:02517 Sq:02517
2017-06-01 23:30:00 Fr:02518 Sq:02518
2017-06-01 23:29:59 Fr:02519 Sq:02519
2017-06-01 23:29:58 Fr:02520 Sq:02520
2017-06-01 23:29:50 Fr:02521 Sq:02521
2017-06-01 23:29:56 Fr:00502 Sq:025k2
2017-06-01 23:30:15 Fr:00503 Sq:025k3
2017-06-01 23:30:16 Fr:07710 Sq:025lp
2017-06-07 14:48:51 Fr:005ix Sq:025x5
2017-06-01 23:41:30 Fr:025ix Sq:025xu
2017-06-01 23:29:56 Fr:025xx Sq:025xx

Lake District
2014-10-04 12:00:00 Fr:01216 Sq:02601216
2017-05-23 23:58:22 Fr:01217 Sq:02601217
2017-05-23 23:58:33 Fr:01705 Sq:02601705
1961-09-15 23:00:00 Fr:02605 Sq:02605
1961-09-15 23:00:00 Fr:02606 Sq:02606
1961-09-15 23:00:00 Fr:02607 Sq:02607
1961-10-31 00:00:00 Fr:02608 Sq:02608
1961-10-31 00:00:00 Fr:02609 Sq:02609
1961-10-31 00:00:00 Fr:02610 Sq:02610
1961-10-31 00:00:00 Fr:02611 Sq:02611
1961-10-31 00:00:00 Fr:02612 Sq:02612
1961-10-31 00:00:00 Fr:02613 Sq:02613
1961-10-31 00:00:00 Fr:02614 Sq:02614
1961-10-31 01:00:00 Fr:02614tr Sq:02614tr
1961-10-31 00:00:00 Fr:02615 Sq:02615
2017-05-23 23:16:14 Fr:026ix Sq:026ix
2017-05-23 23:27:04 Fr:02807 Sq:02807
2017-05-23 23:27:03 Fr:02810 Sq:02810
2017-06-07 15:51:23 Fr:028ix Sq:028ix

Film 051
1964-09-01 23:00:00 Fr:05106 Sq:05106
Cambridge. View from tower of Great St. Mary's looking north to Trinity and St John's
cambridge trinitycollege stjohnscollege greatstmarys
1964-09-01 23:00:00 Fr:05107 Sq:05107
Cambridge. Florence in punt with St John's College Chapel in background
cambridge stjohnscollege florencehaworth
1964-09-02 23:00:00 Fr:05108 Sq:05108
Great Court, Trinity College, Cambridge
cambridge trinitycollege
1964-09-02 23:00:00 Fr:05109 Sq:05109
Cambridge
cambridge
1964-09-02 23:00:00 Fr:05110 Sq:05110
Cambridge
cambridge
1964-09-02 23:00:00 Fr:05111 Sq:05111
Cambridge
cambridge roger rosalind
1964-09-03 23:00:00 Fr:05112 Sq:05112
Cambridge
cambridge rosalind florencehaworth jackhaworth
1964-09-03 23:00:00 Fr:05113 Sq:05113
Cambridge
cambridge florencehaworth jackhaworth
1964-09-03 23:00:00 Fr:05114 Sq:05114
Cambridge
cambridge
1964-09-04 23:00:00 Fr:05115 Sq:05115
Fitzwilliam College, Cambridge
cambridge
1964-09-04 23:00:00 Fr:05116 Sq:05116
Fitzwilliam College, Cambridge
cambridge
1964-09-04 23:00:00 Fr:05117 Sq:05117
Fitzwilliam College, Cambridge
cambridge
1964-09-04 23:00:00 Fr:05118 Sq:05118
Cambridge
cambridge
1964-09-04 23:00:00 Fr:05119 Sq:05119
Cambridge
cambridge
1964-09-04 23:00:00 Fr:05120 Sq:05120
Cambridge
cambridge
1964-09-04 23:00:00 Fr:05121 Sq:05121
Cambridge
cambridge rosalind florencehaworth jackhaworth

Film 052
1964-09-06 23:00:00 Fr:05200 Sq:05200
Cambridge
cambridge
1964-09-06 23:00:00 Fr:05201 Sq:05201
St Bene't's Church, Cambridge
1964-09-07 23:00:00 Fr:05202 Sq:05202
Ely Cathedral
1964-09-07 23:00:00 Fr:05203 Sq:05203
Ely Cathedral
1964-09-07 23:00:00 Fr:05204 Sq:05204
Ely Cathedral
1964-09-07 23:00:00 Fr:05205 Sq:05205
Haystacks, Holbeach St Marks, Lincolnshire
1964-09-08 23:00:00 Fr:05206 Sq:05206
Jew's House, Lincoln
jack florence rosalind
1964-09-10 23:00:00 Fr:05207 Sq:05207
Boötes (Arcturus) and Corona looking west at 2130 GMT. 3 minute exposure
1964-09-12 23:00:00 Fr:05216 Sq:05216
Roger in undergraduate gown at home
roger
1964-09-27 00:00:00 Fr:05217 Sq:05217
Horfield FMH, Bristol - meeting website
bristol horfield
1964-09-27 23:00:00 Fr:05218 Sq:05218
City Hall and Cabot Tower, Bristol
bristol
1964-09-27 23:00:00 Fr:05219 Sq:05219
City Hall, Bristol
bristol
1964-09-27 23:00:00 Fr:05220 Sq:05220
Temple Meads Station entrance, Bristol
bristol
1964-09-27 23:00:00 Fr:05221 Sq:05221
Manchester Cathedral and Irwell from approach road to Exchange Station

Poppy Day parade, Cambridge 1964
1964-11-07 00:00:00 Fr:05300 Sq:05300
Poppy Day parade, Cambridge
1964-11-07 00:00:00 Fr:05301 Sq:05301
Poppy Day parade, Cambridge
1964-11-07 00:00:00 Fr:05302 Sq:05302
Poppy Day parade, Cambridge
1964-11-07 00:00:00 Fr:05303 Sq:05303 1964-11-07 00:00:00 Fr:05303 Sq:05303 1964-11-07 00:00:00 Fr:05303 Sq:05303
Poppy Day parade, Cambridge. The cannibals are first year undergraduates from St. John's College. The missionary in the cooking pot is Keith Sutton, at that time chaplain of St. John's. At that time Hugh Montefiore was vicar of the university church, Great St Montefiore's Mary's. Montefiore went on to be Bishop of Kingston-upon-Thames and Keith Sutton followed him to that post - coincidence or old-boy network?
missionary cannibal keithsutton
1964-11-07 00:00:00 Fr:05304 Sq:05304
Poppy Day parade, Cambridge
1964-11-07 00:00:00 Fr:05305 Sq:05305
Poppy Day parade, Cambridge
1964-11-07 00:00:00 Fr:05306 Sq:05306
Poppy Day parade, Cambridge
1964-11-07 00:00:00 Fr:05307 Sq:05307
Poppy Day parade, Cambridge
1964-11-07 00:00:00 Fr:05308 Sq:05308
Poppy Day parade, Cambridge
1964-11-07 00:00:00 Fr:05309 Sq:05309
Poppy Day parade, Cambridge
1964-11-07 00:00:00 Fr:05310 Sq:05310
Poppy Day parade, Cambridge
1964-11-07 00:00:00 Fr:05311 Sq:05311
Poppy Day parade, Cambridge
1964-11-07 00:00:00 Fr:05312 Sq:05312
Poppy Day parade, Cambridge
1965-07-29 00:00:00 Fr:05402 Sq:05402
Ribble Motor Services bus ticket

Film 063
1965-12-27 00:00:00 Fr:06305 Sq:06305
Skating on Ratherheath
1966-02-11 00:00:00 Fr:06306 Sq:06306
Martin and Roger's Valentine cards
1966-02-11 00:00:00 Fr:06307 Sq:06307
Martin and Roger's Valentine cards
1966-02-11 00:00:00 Fr:06308 Sq:06308
Martin and Roger's Valentine cards
1966-02-11 00:00:00 Fr:06309 Sq:06309
Martin and Roger's Valentine cards
roger martinhuxley
2017-05-23 02:25:43 Fr:06317 Sq:06317
2017-05-23 02:25:42 Fr:06318 Sq:06318
2017-05-23 02:25:42 Fr:06319 Sq:06319
2017-05-23 02:25:40 Fr:06320 Sq:06320
2017-05-23 02:25:45 Fr:06321 Sq:06321
1966-03-01 00:00:00 Fr:063ix Sq:063ix

Film 064
2017-05-23 23:27:01 Fr:06401 Sq:06401
2017-05-23 23:27:01 Fr:06402 Sq:06402
2017-05-23 23:26:45 Fr:06402_07020 Sq:06402_07020
2017-05-23 23:27:00 Fr:06405 Sq:06405
2017-05-23 23:26:59 Fr:06406 Sq:06406
2017-05-23 23:26:58 Fr:06407 Sq:06407
2017-05-23 23:26:57 Fr:06409 Sq:06409
2017-05-23 23:26:56 Fr:06410 Sq:06410
2017-05-23 23:26:44 Fr:06411 Sq:06411
2017-05-23 23:26:55 Fr:06412 Sq:06412
2017-05-23 23:26:54 Fr:06414 Sq:06414
2017-05-23 23:26:53 Fr:06415 Sq:06415
2017-05-23 23:26:53 Fr:06416 Sq:06416
2017-05-23 23:26:52 Fr:06417 Sq:06417
2017-05-23 23:26:51 Fr:06418 Sq:06418
2017-05-23 23:26:50 Fr:06419 Sq:06419
2017-05-23 23:26:49 Fr:06420 Sq:06420
2017-05-23 23:26:43 Fr:06421 Sq:06421

Film 073
2017-05-23 23:26:48 Fr:07317 Sq:07317
2017-05-23 23:26:47 Fr:07318 Sq:07318
2017-05-23 23:26:46 Fr:07319 Sq:07319
2017-05-23 23:26:41 Fr:07320 Sq:07320
2017-05-23 23:26:45 Fr:07321 Sq:07321

Film 074
2017-05-23 12:27:18 Fr:074-2 Sq:074-2
1966-06-11 05:10:22 Fr:07400 Sq:07400
1966-06-11 05:10:11 Fr:07401 Sq:07401

petereccles jimmymalcolmson margaretprest
2017-05-23 12:27:16 Fr:07402 Sq:07402
2017-05-23 12:27:16 Fr:07403 Sq:07403
2017-05-23 12:27:15 Fr:07404 Sq:07404
2017-05-23 12:26:44 Fr:07405 Sq:07405
2017-05-23 12:27:14 Fr:07406 Sq:07406
2017-05-23 12:27:13 Fr:07407 Sq:07407
2017-05-23 12:27:13 Fr:07408 Sq:07408
2017-05-23 12:27:12 Fr:07409 Sq:07409
2017-05-23 12:27:11 Fr:07410 Sq:07410
2017-05-23 12:26:44 Fr:07411 Sq:07411
2017-05-23 12:27:10 Fr:07412 Sq:07412
2010-11-30 19:54:16 Fr:07413 Sq:07413
2017-05-23 12:26:43 Fr:07414 Sq:07414
2017-05-23 12:27:08 Fr:07415 Sq:07415
2017-05-23 12:27:07 Fr:07416 Sq:07416
2017-05-23 12:27:06 Fr:07417 Sq:07417
2017-05-23 12:27:05 Fr:07418 Sq:07418
2017-05-23 12:27:04 Fr:07419 Sq:07419
2010-11-30 19:57:10 Fr:07420 Sq:07420
2017-05-23 12:27:02 Fr:07421 Sq:07421
1966-06-13 05:10:27 Fr:074ix Sq:074ix

Film 076
2010-12-09 22:28:48 Fr:07618 Sq:07618

Film 079
2017-05-23 12:26:43 Fr:07902 Sq:07902
2017-05-23 12:27:01 Fr:07903 Sq:07903
2017-05-23 00:37:20 Fr:07904 Sq:07904
2017-05-23 00:37:19 Fr:07905 Sq:07905
2017-05-23 00:36:48 Fr:07906 Sq:07906
2017-05-23 00:37:18 Fr:07907 Sq:07907
2017-05-23 00:37:17 Fr:07908 Sq:07908
2017-05-23 00:37:15 Fr:07909 Sq:07909
2017-05-23 00:37:14 Fr:07910 Sq:07910
2017-05-23 00:37:12 Fr:07911 Sq:07911
2017-05-23 00:36:47 Fr:07912 Sq:07912
2017-05-23 00:37:11 Fr:07913 Sq:07913
2017-05-23 00:37:10 Fr:07914 Sq:07914
2017-05-23 00:37:09 Fr:07915 Sq:07915
2017-05-23 00:37:08 Fr:07916 Sq:07916
2010-12-09 22:31:00 Fr:07917 Sq:07917
2017-05-23 00:37:07 Fr:07918 Sq:07918
2017-05-23 00:37:06 Fr:07919 Sq:07919
2017-05-23 00:36:46 Fr:07920 Sq:07920
2017-05-23 00:37:05 Fr:07921 Sq:07921
2017-05-23 00:37:04 Fr:07922 Sq:07922
2017-05-23 00:37:04 Fr:07923 Sq:07923
2017-05-23 00:37:03 Fr:07924 Sq:07924
2017-05-23 00:37:02 Fr:07925 Sq:07925
2017-05-23 00:36:44 Fr:07926 Sq:07926
2017-05-23 00:37:01 Fr:07927 Sq:07927
2017-05-23 00:37:00 Fr:07928 Sq:07928
2017-05-23 00:36:59 Fr:07929 Sq:07929
2017-05-23 00:36:59 Fr:07930 Sq:07930
2017-05-23 00:36:58 Fr:07931 Sq:07931
2017-05-23 00:36:43 Fr:07932 Sq:07932
2017-05-23 00:36:57 Fr:07933 Sq:07933
2017-05-23 00:36:56 Fr:07934 Sq:07934
1966-08-01 00:00:00 Fr:07935 Sq:07935
Wrest Park, Peacock
peacock
2017-05-23 00:36:53 Fr:07936 Sq:07936
2017-05-23 00:36:53 Fr:07937 Sq:07937
2017-05-23 00:36:52 Fr:07938 Sq:07938
2017-05-23 00:36:49 Fr:079ix Sq:079ix

One day in 1966 August and other stuff
1966-08-27 00:00:13 Fr:080-1 Sq:080-1
Thor's Cave seen from Leek Road - Geograph image
rosalind
1966-08-27 00:00:12 Fr:08000 Sq:08000
Thor's Cave seen from Leek Road - Geograph image
1966-08-27 00:00:11 Fr:08001 Sq:08001
Thor's Cave seen from Leek Road - Geograph image
1966-08-27 00:00:10 Fr:08002 Sq:08002
St Raphaels Catholic Church, Millbrook
1966-08-27 00:00:09 Fr:08003 Sq:08003
St Raphaels Catholic Church, Millbrook
mosaic
1966-08-27 00:00:08 Fr:08004 Sq:08004
St Raphaels Catholic Church, Millbrook
1966-08-27 00:00:07 Fr:08005 Sq:08005
St Raphaels Catholic Church, Millbrook
1966-08-27 00:00:06 Fr:08006 Sq:08006
St Raphaels Catholic Church, Millbrook
interior
1966-08-27 00:00:05 Fr:08007 Sq:08007
St Raphaels Catholic Church, Millbrook - view in 2007 - note that the mural has gone
1966-08-27 00:00:04 Fr:08008 Sq:08008
Blackstone Edge - Geograph image
rosalind
1966-08-27 00:00:03 Fr:08009 Sq:08009
Blackstone Edge
1966-08-27 00:00:02 Fr:08010 Sq:08010
Natural sculpture formed by a tree stump. "Castle Donington - A6 [now A50?] road junction"
1966-08-27 00:00:01 Fr:08011 Sq:08011
Natural sculpture formed by a tree stump. "Castle Donington - A6 [now A50?] road junction" - possibly near SK 454 294

Young Friends National Gathering, Loughborough
1966-09-01 00:00:00 Fr:08012 Sq:08012
Young Friends National Gathering, Loughborough - Raye Wooder
rayewooder
1966-09-01 00:00:00 Fr:08013 Sq:08013
Young Friends National Gathering, Loughborough - Raye Wooder
rayewooder
1966-09-01 00:00:00 Fr:08014 Sq:08014
Young Friends National Gathering, Loughborough
roger
1966-09-01 00:00:00 Fr:08015 Sq:08015
Young Friends National Gathering, Loughborough
1966-09-01 00:00:00 Fr:08016 Sq:08016
Young Friends National Gathering, Loughborough
rayewooder
1966-09-01 00:00:00 Fr:08017 Sq:08017
Young Friends National Gathering, Loughborough
1966-09-01 00:00:00 Fr:08018 Sq:08018
Young Friends National Gathering, Loughborough
1966-09-01 00:00:00 Fr:08019 Sq:08019
Young Friends National Gathering, Loughborough
1966-09-01 00:00:00 Fr:08020 Sq:08020
Young Friends National Gathering, Loughborough
1966-08-27 00:00:00 Fr:080ix Sq:080ix

Film 091
2017-05-23 14:59:21 Fr:09115 Sq:09115
2017-05-23 14:59:37 Fr:09116 Sq:09116
2017-05-23 14:59:20 Fr:09117 Sq:09117
2017-05-23 14:59:36 Fr:09118 Sq:09118
2017-05-23 14:59:35 Fr:09119 Sq:09119
2017-05-23 14:59:34 Fr:09120 Sq:09120
2017-05-23 14:59:33 Fr:09121 Sq:09121
2017-05-23 14:59:32 Fr:09122 Sq:09122
2017-05-23 14:59:31 Fr:09123 Sq:09123
2017-05-23 14:59:30 Fr:09124 Sq:09124
2017-05-23 14:59:20 Fr:09125 Sq:09125
2017-05-23 14:59:29 Fr:09126 Sq:09126
2017-05-23 14:59:29 Fr:09127 Sq:09127
2017-05-23 14:59:28 Fr:09128 Sq:09128
2017-05-23 14:59:27 Fr:09129 Sq:09129
2017-05-23 14:59:19 Fr:09130 Sq:09130
2017-05-23 14:59:26 Fr:09131 Sq:09131
2017-05-23 14:59:25 Fr:09132 Sq:09132
2017-05-23 14:59:24 Fr:09133 Sq:09133
2017-05-23 14:59:24 Fr:09134 Sq:09134
2017-05-23 14:59:22 Fr:09135 Sq:09135
2017-05-23 14:59:19 Fr:09136 Sq:09136
2017-05-23 14:59:38 Fr:09137 Sq:09137
2017-05-23 14:59:21 Fr:091ix Sq:091ix

Film 092
0000-00-00 00:00:00 Fr:092ix Sq:092
The only documentation I have for this film
2000-00-00 00:00:00 Fr:09201 Sq:09201
2000-00-00 00:00:00 Fr:09202 Sq:09202

rogergraduationday
2000-00-00 00:00:00 Fr:09203 Sq:09203

rogergraduationday
2000-00-00 00:00:00 Fr:09204 Sq:09204

susanjocelynbellburnell rogergraduationday
2000-00-00 00:00:00 Fr:09205 Sq:09205

senatehouse rogergraduationday
2000-00-00 00:00:00 Fr:09206 Sq:09206

jack florence roger rogergraduationday
2000-00-00 00:00:00 Fr:09207 Sq:09207

cambridge roger rogergraduationday
2000-00-00 00:00:00 Fr:09208 Sq:09208

peter eccles rogergraduationday peterjeccles
2000-00-00 00:00:00 Fr:09209 Sq:09209

peter eccles rogergraduationday petereccles
2000-00-00 00:00:00 Fr:09211 Sq:09211

rogergraduationday
2017-05-23 12:11:23 Fr:09213 Sq:09213
2000-00-00 00:00:00 Fr:09214 Sq:09214

library stjohnscollege rogergraduationday
2000-00-00 00:00:00 Fr:09215 Sq:09215

bridgeofsighs stjohnscollege rogergraduationday
2000-00-00 00:00:00 Fr:09216 Sq:09216

florence library stjohnscollege rogergraduationday
2000-00-00 00:00:00 Fr:09212 Sq:092170

silver stjohnscollege seniorcombinationroom rogergraduationday
2000-00-00 00:00:00 Fr:09217 Sq:092171

silver stjohnscollege seniorcombinationroom rogergraduationday
2000-00-00 00:00:00 Fr:09218 Sq:09218

lawn newcourt rogergraduationday
2000-00-00 00:00:00 Fr:09219 Sq:09219

jack florence rogergraduationday
0000-00-00 00:00:00 Fr:09220 Sq:09220

rogergraduationday
2000-00-00 00:00:00 Fr:09221 Sq:09221

roof roger crippsbuilding rogergraduationday
2017-05-23 12:11:23 Fr:09222 Sq:09222
2000-00-00 00:00:00 Fr:09223 Sq:09223

pooloflondon mvdragon
2000-00-00 00:00:00 Fr:09224 Sq:09224 2000-00-00 00:00:00 Fr:09224 Sq:09224 2000-00-00 00:00:00 Fr:09224 Sq:09224
MV Dragon in the Pool of London
pooloflondon mvdragon
2017-05-23 12:11:25 Fr:10a608cr Sq:092245
2000-00-00 00:00:00 Fr:09225 Sq:09225
On London Bridge looking upstream
2000-00-00 00:00:00 Fr:09226 Sq:09226
On London Bridge looking upstream
2000-00-00 00:00:00 Fr:09227 Sq:09227
Tower Bridge from London Bridge. Note the balustrade - this London Bridge is now in Arizona.
2000-00-00 00:00:00 Fr:09228 Sq:09228
Billy Graham's All-Britain Crusade, Earls Court
2000-00-00 00:00:00 Fr:09229 Sq:09229
Billy Graham's All-Britain Crusade, Earls Court
2000-00-00 00:00:00 Fr:09230 Sq:09230
2000-00-00 00:00:00 Fr:09231 Sq:09231
0000-00-00 00:00:00 Fr:09232 Sq:09232
2000-00-00 00:00:00 Fr:09233 Sq:09233

catharinemaryboyce
2000-00-00 00:00:00 Fr:09234 Sq:09234
Open Air Concert, Kenwood
2000-00-00 00:00:00 Fr:09235 Sq:09235
Open Air Concert, Kenwood

Winchester Cathedral
2000-00-00 00:00:00 Fr:09236 Sq:09236
2000-00-00 00:00:00 Fr:09237 Sq:09237
2000-00-00 00:00:00 Fr:09301 Sq:09301
2000-00-00 00:00:00 Fr:09302 Sq:09302
2000-00-00 00:00:00 Fr:09303 Sq:09303
2000-00-00 00:00:00 Fr:09304 Sq:09304
2000-00-00 00:00:00 Fr:09305 Sq:09305

Film 093
2000-00-00 00:00:00 Fr:09306 Sq:09306

horses
2000-00-00 00:00:00 Fr:09307 Sq:09307

horses catharineboyce
2000-00-00 00:00:00 Fr:09308 Sq:09308

catharineboyce
2000-00-00 00:00:00 Fr:09309 Sq:09309
2000-00-00 00:00:00 Fr:09310 Sq:09310
2017-05-23 14:49:51 Fr:09311 Sq:09311
2000-00-00 00:00:00 Fr:09312 Sq:09312
2000-00-00 00:00:00 Fr:09313 Sq:09313
2000-00-00 00:00:00 Fr:09314 Sq:09314
2000-00-00 00:00:00 Fr:09315 Sq:09315
2000-00-00 00:00:00 Fr:09316 Sq:09316
2000-00-00 00:00:00 Fr:09317 Sq:09317
2000-00-00 00:00:00 Fr:09318 Sq:09318
2000-00-00 00:00:00 Fr:09319 Sq:09319
2000-00-00 00:00:00 Fr:09320 Sq:09320
2000-00-00 00:00:00 Fr:09321 Sq:09321
2000-00-00 00:00:00 Fr:09322 Sq:09322
2000-00-00 00:00:00 Fr:09323 Sq:09323
2000-00-00 00:00:00 Fr:09324 Sq:09324
2000-00-00 00:00:00 Fr:09325 Sq:09325
2000-00-00 00:00:00 Fr:09326 Sq:09326
2000-00-00 00:00:00 Fr:09327 Sq:09327
2000-00-00 00:00:00 Fr:09328 Sq:09328

rosalind
2000-00-00 00:00:00 Fr:09329 Sq:09329
Rosalind on a dig at Panningridge [or Pannelridge], Penhurst, near Battle, Sussex
rosalind
2000-00-00 00:00:00 Fr:09330 Sq:09330
2000-00-00 00:00:00 Fr:09331 Sq:09331
2000-00-00 00:00:00 Fr:09332 Sq:09332
2000-00-00 00:00:00 Fr:09333 Sq:09333
2017-05-23 14:49:41 Fr:093ix Sq:093ix

Film 094
0000-00-00 00:00:00 Fr:094ix Sq:094
2017-05-23 15:05:12 Fr:094-1 Sq:094-1
2000-00-00 00:00:00 Fr:09400 Sq:09400
2000-00-00 00:00:00 Fr:09401 Sq:09401
2017-05-23 15:05:11 Fr:09402 Sq:09402
2000-00-00 00:00:00 Fr:09403 Sq:09403
2017-05-23 15:05:11 Fr:09404 Sq:09404
2000-00-00 00:00:00 Fr:09405 Sq:09405
2017-05-23 15:05:11 Fr:09406 Sq:09406
2017-05-23 15:05:11 Fr:09407 Sq:09407
2000-00-00 00:00:00 Fr:09408 Sq:09408
2000-00-00 00:00:00 Fr:09409 Sq:09409

Cambridge Friends Meeting House being demolished
2000-00-00 00:00:00 Fr:09410 Sq:09410 2000-00-00 00:00:00 Fr:09410 Sq:09410 2000-00-00 00:00:00 Fr:09410 Sq:09410
Also on geograph and Commons.
2000-00-00 00:00:00 Fr:09411 Sq:09411
2000-00-00 00:00:00 Fr:09412 Sq:09412
2000-00-00 00:00:00 Fr:09413 Sq:09413
2000-00-00 00:00:00 Fr:09414 Sq:09414
2000-00-00 00:00:00 Fr:09415 Sq:09415
2000-00-00 00:00:00 Fr:09416 Sq:09416

Malcomsons of Moccas
2000-00-00 00:00:00 Fr:09417 Sq:09417
2000-00-00 00:00:00 Fr:09418 Sq:09418
2000-00-00 00:00:00 Fr:09419 Sq:09419
2000-00-00 00:00:00 Fr:09420 Sq:09420
2000-00-00 00:00:00 Fr:09421 Sq:09421
0000-00-00 00:00:00 Fr:095ix Sq:095
2000-00-00 00:00:00 Fr:09500 Sq:09500
2000-00-00 00:00:00 Fr:09501 Sq:09501
2000-00-00 00:00:00 Fr:09502 Sq:09502
2000-00-00 00:00:00 Fr:09503 Sq:09503
2000-00-00 00:00:00 Fr:09504 Sq:09504
2000-00-00 00:00:00 Fr:09505 Sq:09505
2000-00-00 00:00:00 Fr:09506 Sq:09506

Film 095
2000-00-00 00:00:00 Fr:09507 Sq:09507

Woodbrooke Young Friends Christmas Gathering
2000-00-00 00:00:00 Fr:09508 Sq:09508
2000-00-00 00:00:00 Fr:09509 Sq:09509
2000-00-00 00:00:00 Fr:09510 Sq:09510
2000-00-00 00:00:00 Fr:09511 Sq:09511
2000-00-00 00:00:00 Fr:09512 Sq:09512
2000-00-00 00:00:00 Fr:09513 Sq:09513
2000-00-00 00:00:00 Fr:09514 Sq:09514
2000-00-00 00:00:00 Fr:09515 Sq:09515
2000-00-00 00:00:00 Fr:09516 Sq:09516
2000-00-00 00:00:00 Fr:09517 Sq:09517
2017-05-23 15:05:27 Fr:09518 Sq:09518
2017-05-23 15:05:27 Fr:09519 Sq:09519

Edinburgh
2000-00-00 00:00:00 Fr:09520 Sq:09520
2000-00-00 00:00:00 Fr:09521 Sq:09521
2000-00-00 00:00:00 Fr:09522 Sq:09522
2000-00-00 00:00:00 Fr:09523 Sq:09523
2000-00-00 00:00:00 Fr:09524 Sq:09524
2000-00-00 00:00:00 Fr:09525 Sq:09525
2000-00-00 00:00:00 Fr:09526 Sq:09526

Jo
2000-00-00 00:00:00 Fr:09527 Sq:09527
2000-00-00 00:00:00 Fr:09528 Sq:09528
2000-00-00 00:00:00 Fr:09529 Sq:09529
2000-00-00 00:00:00 Fr:09530 Sq:09530

Film 096
2000-00-00 00:00:00 Fr:096ix Sq:096
2017-05-23 15:06:25 Fr:096-1 Sq:096-1
2017-05-23 15:05:59 Fr:09600 Sq:09600
2017-05-23 15:05:59 Fr:09601 Sq:09601
2000-00-00 00:00:00 Fr:09602 Sq:09602
2000-00-00 00:00:00 Fr:09603 Sq:09603
2000-00-00 00:00:00 Fr:09604 Sq:09604
2000-00-00 00:00:00 Fr:09605 Sq:09605
2000-00-00 00:00:00 Fr:09606 Sq:09606
2000-00-00 00:00:00 Fr:09607 Sq:09607
2000-00-00 00:00:00 Fr:09608 Sq:09608
2000-00-00 00:00:00 Fr:09609 Sq:09609
2000-00-00 00:00:00 Fr:09610 Sq:09610
2000-00-00 00:00:00 Fr:09611 Sq:09611
2000-00-00 00:00:00 Fr:09612 Sq:09612
2000-00-00 00:00:00 Fr:09613 Sq:09613
2017-05-23 15:05:57 Fr:09614 Sq:09614
2000-00-00 00:00:00 Fr:10031 Sq:09614r
2000-00-00 00:00:00 Fr:09615 Sq:09615
2017-05-23 15:05:56 Fr:09616 Sq:09616
2000-00-00 00:00:00 Fr:10032 Sq:09616r
2000-00-00 00:00:00 Fr:09617 Sq:09617
2000-00-00 00:00:00 Fr:10033 Sq:096171
2000-00-00 00:00:00 Fr:09618 Sq:09618
2000-00-00 00:00:00 Fr:09619 Sq:09619
2000-00-00 00:00:00 Fr:09620 Sq:09620
2000-00-00 00:00:00 Fr:10034 Sq:096201
2000-00-00 00:00:00 Fr:09621 Sq:09621
2000-00-00 00:00:00 Fr:09622 Sq:09622
2017-05-23 15:05:56 Fr:09623 Sq:09623
2000-00-00 00:00:00 Fr:09624 Sq:09624
2000-00-00 00:00:00 Fr:09625 Sq:09625
2000-00-00 00:00:00 Fr:09626 Sq:09626
2000-00-00 00:00:00 Fr:09627 Sq:09627
2017-05-23 15:05:54 Fr:09628 Sq:09628
2000-00-00 00:00:00 Fr:09629 Sq:09629
2017-05-23 15:05:54 Fr:09630 Sq:09630
2000-00-00 00:00:00 Fr:09631 Sq:09631
2000-00-00 00:00:00 Fr:09632 Sq:09632
2000-00-00 00:00:00 Fr:09633 Sq:09633
2000-00-00 00:00:00 Fr:09634 Sq:09634
2000-00-00 00:00:00 Fr:09635 Sq:09635
2000-00-00 00:00:00 Fr:09636 Sq:09636
2000-00-00 00:00:00 Fr:09637 Sq:09637

Film 097
0000-00-00 00:00:00 Fr:097ix Sq:097
2000-00-00 00:00:00 Fr:097-1 Sq:097-1
From left to right: Rosemary Joan Barlow, Peter J Eccles (Yearly Meeting Clerk and Swarthmore Lecturer) and Alison Seaton Lees. Cambridge Young Friends "at home" chez Volker Heine, Humberstone Road, Cambridge.
2000-00-00 00:00:00 Fr:09700 Sq:09700
2000-00-00 00:00:00 Fr:09701 Sq:09701
2000-00-00 00:00:00 Fr:09702 Sq:09702
2017-05-23 12:14:26 Fr:09702vh Sq:09702vh 2017-05-23 12:14:26 Fr:09702vh Sq:09702vh 2017-05-23 12:14:26 Fr:09702vh Sq:09702vh
2000-00-00 00:00:00 Fr:09703 Sq:09703
2017-05-23 12:14:25 Fr:09704 Sq:09704
2017-05-23 12:14:26 Fr:09715 Sq:09715
2000-00-00 00:00:00 Fr:09716 Sq:09716
2000-00-00 00:00:00 Fr:09717 Sq:09717
2000-00-00 00:00:00 Fr:09718 Sq:09718
2000-00-00 00:00:00 Fr:09719 Sq:09719
2017-05-23 12:14:26 Fr:09720 Sq:09720
2000-00-00 00:00:00 Fr:09721 Sq:09721
2000-00-00 00:00:00 Fr:09722 Sq:09722
2000-00-00 00:00:00 Fr:09723 Sq:09723
2000-00-00 00:00:00 Fr:09724 Sq:09724
2000-00-00 00:00:00 Fr:09725 Sq:09725
2000-00-00 00:00:00 Fr:09726 Sq:09726
2000-00-00 00:00:00 Fr:09727 Sq:09727
2000-00-00 00:00:00 Fr:09728 Sq:09728
2000-00-00 00:00:00 Fr:09729 Sq:09729
2000-00-00 00:00:00 Fr:09730 Sq:09730
2000-00-00 00:00:00 Fr:09731 Sq:09731
2000-00-00 00:00:00 Fr:09732 Sq:09732
2000-00-00 00:00:00 Fr:09733 Sq:09733
2000-00-00 00:00:00 Fr:09734 Sq:09734
2000-00-00 00:00:00 Fr:09735 Sq:09735
2000-00-00 00:00:00 Fr:09736 Sq:09736
2000-00-00 00:00:00 Fr:09737 Sq:09737

Film 098
0000-00-00 00:00:00 Fr:098ix Sq:098
2000-00-00 00:00:00 Fr:09801 Sq:09801
2000-00-00 00:00:00 Fr:09802 Sq:09802
2000-00-00 00:00:00 Fr:09803 Sq:09803
2000-00-00 00:00:00 Fr:09804 Sq:09804
2000-00-00 00:00:00 Fr:09805 Sq:09805
2000-00-00 00:00:00 Fr:09806 Sq:09806
2000-00-00 00:00:00 Fr:09807 Sq:09807
2000-00-00 00:00:00 Fr:09808 Sq:09808
2000-00-00 00:00:00 Fr:09809 Sq:09809

petereccles pamgoldsbury pameccles
2000-00-00 00:00:00 Fr:09810 Sq:09810
2000-00-00 00:00:00 Fr:09811 Sq:09811
2000-00-00 00:00:00 Fr:09812 Sq:09812
2000-00-00 00:00:00 Fr:09813 Sq:09813
2000-00-00 00:00:00 Fr:09814 Sq:09814
2000-00-00 00:00:00 Fr:09815 Sq:09815
2000-00-00 00:00:00 Fr:09816 Sq:09816
2000-00-00 00:00:00 Fr:09817 Sq:09817
2000-00-00 00:00:00 Fr:09818 Sq:09818
2000-00-00 00:00:00 Fr:09819 Sq:09819
2000-00-00 00:00:00 Fr:09820 Sq:09820
2000-00-00 00:00:00 Fr:09821 Sq:09821
2000-00-00 00:00:00 Fr:09822 Sq:09822
2000-00-00 00:00:00 Fr:09823 Sq:09823
2000-00-00 00:00:00 Fr:09824 Sq:09824
2000-00-00 00:00:00 Fr:09825 Sq:09825
2000-00-00 00:00:00 Fr:09826 Sq:09826
2000-00-00 00:00:00 Fr:09827 Sq:09827
2000-00-00 00:00:00 Fr:09828 Sq:09828
2000-00-00 00:00:00 Fr:09829 Sq:09829
2000-00-00 00:00:00 Fr:09830 Sq:09830
2000-00-00 00:00:00 Fr:09831 Sq:09831
2000-00-00 00:00:00 Fr:09832 Sq:09832
2000-00-00 00:00:00 Fr:09833 Sq:09833
2000-00-00 00:00:00 Fr:09834 Sq:09834
2000-00-00 00:00:00 Fr:09835 Sq:09835
2000-00-00 00:00:00 Fr:09836 Sq:09836
2000-00-00 00:00:00 Fr:09837 Sq:09837

Film 099
2000-00-00 00:00:00 Fr:099-1 Sq:099-1
2000-00-00 00:00:00 Fr:09901 Sq:09901
2000-00-00 00:00:00 Fr:09902 Sq:09902
2000-00-00 00:00:00 Fr:09903 Sq:09903
2000-00-00 00:00:00 Fr:09904 Sq:09904
2000-00-00 00:00:00 Fr:09905 Sq:09905
2000-00-00 00:00:00 Fr:09906 Sq:09906
2000-00-00 00:00:00 Fr:09907 Sq:09907
2000-00-00 00:00:00 Fr:09908 Sq:09908

Westminster FMH Cellar
2000-00-00 00:00:00 Fr:09909 Sq:09909

ceres
2000-00-00 00:00:00 Fr:09910 Sq:09910
Ceres Squire in the cellar of Westminster FMH
ceres
2000-00-00 00:00:00 Fr:09911 Sq:09911

ceres
2000-00-00 00:00:00 Fr:09912 Sq:09912

ceres
2000-00-00 00:00:00 Fr:09913 Sq:09913

Oxford and Cambridge Boat Race
2000-00-00 00:00:00 Fr:09914 Sq:09914
2000-00-00 00:00:00 Fr:09915 Sq:09915
2000-00-00 00:00:00 Fr:09916 Sq:09916
2000-00-00 00:00:00 Fr:09917 Sq:09917
2000-00-00 00:00:00 Fr:09918 Sq:09918
2000-00-00 00:00:00 Fr:09919 Sq:09919
2000-00-00 00:00:00 Fr:09920 Sq:09920
2000-00-00 00:00:00 Fr:09921 Sq:09921
2000-00-00 00:00:00 Fr:09922 Sq:09922
2000-00-00 00:00:00 Fr:09923 Sq:09923
2000-00-00 00:00:00 Fr:09924 Sq:09924

Film 099
2000-00-00 00:00:00 Fr:09925 Sq:09925
2000-00-00 00:00:00 Fr:09926 Sq:09926
2000-00-00 00:00:00 Fr:09927 Sq:09927
2000-00-00 00:00:00 Fr:09928 Sq:09928
2000-00-00 00:00:00 Fr:09929 Sq:09929
2000-00-00 00:00:00 Fr:09931 Sq:09931
2000-00-00 00:00:00 Fr:09932 Sq:09932
2000-00-00 00:00:00 Fr:09933 Sq:09933
2000-00-00 00:00:00 Fr:09934 Sq:09934
2000-00-00 00:00:00 Fr:09935 Sq:09935

Woodbrooke Gathering
2000-00-00 00:00:00 Fr:09936 Sq:09936
2000-00-00 00:00:00 Fr:09937 Sq:09937
2000-00-00 00:00:00 Fr:10000 Sq:10000
2000-00-00 00:00:00 Fr:10001 Sq:10001
2000-00-00 00:00:00 Fr:10002 Sq:10002
2000-00-00 00:00:00 Fr:10003 Sq:10003
2000-00-00 00:00:00 Fr:10004 Sq:10004
2000-00-00 00:00:00 Fr:10005 Sq:10005
2000-00-00 00:00:00 Fr:10006 Sq:10006
2000-00-00 00:00:00 Fr:10007 Sq:10007
2000-00-00 00:00:00 Fr:10008 Sq:10008
2000-00-00 00:00:00 Fr:10009 Sq:10009
2000-00-00 00:00:00 Fr:10010 Sq:10010
2000-00-00 00:00:00 Fr:10011 Sq:10011
2000-00-00 00:00:00 Fr:10012 Sq:10012
2000-00-00 00:00:00 Fr:10013 Sq:10013
2000-00-00 00:00:00 Fr:10014 Sq:10014
2000-00-00 00:00:00 Fr:10015 Sq:10015
2000-00-00 00:00:00 Fr:10016 Sq:10016
2000-00-00 00:00:00 Fr:10017 Sq:10017
2000-00-00 00:00:00 Fr:10018 Sq:10018
2000-00-00 00:00:00 Fr:10019 Sq:10019
2000-00-00 00:00:00 Fr:10020 Sq:10020
2000-00-00 00:00:00 Fr:10021 Sq:10021
2000-00-00 00:00:00 Fr:10022 Sq:10022
2000-00-00 00:00:00 Fr:10023 Sq:10023
2000-00-00 00:00:00 Fr:10024 Sq:10024
2000-00-00 00:00:00 Fr:10025 Sq:10025

Film 100
2000-00-00 00:00:00 Fr:10026 Sq:10026
2000-00-00 00:00:00 Fr:10027 Sq:10027
2000-00-00 00:00:00 Fr:10028 Sq:10028
2000-00-00 00:00:00 Fr:10029 Sq:10029
2000-00-00 00:00:00 Fr:10030 Sq:10030
2000-00-00 00:00:00 Fr:10035 Sq:10035
2000-00-00 00:00:00 Fr:10036 Sq:10036

Film 101
2017-05-23 23:58:32 Fr:10130 Sq:10130
2017-05-23 23:58:31 Fr:10131 Sq:10131

Film 103
2017-05-23 12:27:00 Fr:10318 Sq:10318
2017-05-23 12:26:41 Fr:10319 Sq:10319
2017-05-23 12:26:59 Fr:10320 Sq:10320
2017-05-23 12:26:59 Fr:10321 Sq:10321
2017-05-23 12:26:58 Fr:10322 Sq:10322
2017-05-23 12:26:57 Fr:10323 Sq:10323
2017-05-23 12:26:41 Fr:10324 Sq:10324
2017-05-23 12:26:56 Fr:10325 Sq:10325
2017-05-23 12:26:55 Fr:10326 Sq:10326
2017-05-23 12:26:55 Fr:10327 Sq:10327
2017-05-23 12:26:54 Fr:10328 Sq:10328
2017-05-23 12:26:53 Fr:10329 Sq:10329
2017-05-23 12:26:40 Fr:10330 Sq:10330
2017-05-23 12:26:53 Fr:10331 Sq:10331
2017-05-23 12:26:52 Fr:10332 Sq:10332
2017-05-23 12:26:51 Fr:10333 Sq:10333
2017-05-23 12:26:50 Fr:10334 Sq:10334
2017-05-23 12:26:49 Fr:10335 Sq:10335
2017-05-23 12:26:48 Fr:10336 Sq:10336
2017-05-23 12:26:47 Fr:10337 Sq:10337
2017-05-23 12:27:19 Fr:10338 Sq:10338

Film 104
2017-05-24 00:01:49 Fr:10401 Sq:10401
2017-05-24 00:01:48 Fr:10402 Sq:10402
2017-05-24 00:01:46 Fr:10403 Sq:10403
2017-05-24 00:01:46 Fr:10404 Sq:10404
2017-05-24 00:01:21 Fr:10405 Sq:10405
2017-05-24 00:01:45 Fr:10406 Sq:10406
2017-05-24 00:01:44 Fr:10407 Sq:10407
2010-12-01 20:42:38 Fr:10408 Sq:10408
2017-05-24 00:01:41 Fr:10409 Sq:10409
2017-05-24 00:01:41 Fr:10410 Sq:10410
2017-05-24 00:01:20 Fr:10411 Sq:10411
2017-05-24 00:01:40 Fr:10412 Sq:10412
2017-05-24 00:01:20 Fr:10413 Sq:10413
2017-05-24 00:01:39 Fr:10414 Sq:10414
2017-05-24 00:01:39 Fr:10415 Sq:10415
2017-05-24 00:01:19 Fr:10416 Sq:10416
2017-05-24 00:01:37 Fr:10417 Sq:10417
2017-05-24 00:01:37 Fr:10418 Sq:10418
2017-05-24 00:01:19 Fr:10419 Sq:10419
2017-05-24 00:01:35 Fr:10420 Sq:10420
2010-12-01 20:43:37 Fr:10421 Sq:10421
2010-12-01 20:43:50 Fr:10422 Sq:10422
2017-05-24 00:01:34 Fr:10423 Sq:10423
2017-05-24 00:01:33 Fr:10424 Sq:10424
2017-05-24 00:01:32 Fr:10425 Sq:10425
2017-05-24 00:01:18 Fr:10426 Sq:10426
2017-05-24 00:01:32 Fr:10427 Sq:10427
2017-05-24 00:01:31 Fr:10428 Sq:10428
2017-05-24 00:01:17 Fr:10429 Sq:10429
2017-05-24 00:01:30 Fr:10430 Sq:10430
2017-05-24 00:01:30 Fr:10431 Sq:10431
2017-05-24 00:01:29 Fr:10432 Sq:10432
2017-05-24 00:01:27 Fr:10433 Sq:10433
2017-05-24 00:01:26 Fr:10434 Sq:10434
2017-05-24 00:01:16 Fr:10435 Sq:10435

Film 105
2017-05-24 00:01:25 Fr:10501 Sq:10501
2017-05-24 00:01:24 Fr:10502 Sq:10502
2017-05-24 00:01:24 Fr:10503 Sq:10503
2017-05-24 00:01:15 Fr:10504 Sq:10504
2017-05-24 00:01:23 Fr:10505 Sq:10505
2017-05-24 00:01:22 Fr:10506 Sq:10506
2017-05-24 00:01:14 Fr:10507 Sq:10507
2017-05-24 00:01:50 Fr:10599 Sq:10599

The Pearl 2013
2013-08-16 10:48:38 Fr:138115 Sq:138115
2013-08-16 11:22:50 Fr:138117 Sq:138117
2013-08-16 11:42:55 Fr:138118 Sq:138118
2013-08-16 11:44:46 Fr:138119 Sq:138119
2013-08-16 11:48:44 Fr:138120 Sq:138120
2013-08-16 13:50:22 Fr:138121 Sq:138121
Tony revealed an unexpected talent for a proud person from Lincolnshire - he plays the Northumbrian smallpipes
2013-08-16 16:47:28 Fr:138122 Sq:138122
2013-08-16 16:47:57 Fr:138123 Sq:138123
A very close replica of the original milepost which stood here beside Stenson Lock. Only the "T&MCS 1977" plate half way up gives the game away.
2013-08-16 16:49:19 Fr:138124 Sq:138124
2013-08-16 16:56:37 Fr:138127 Sq:138127
The penant flying from the tiller is the traditional (since way back in 2005!) flag of Lincolnshire, Tony's home county
2013-08-16 17:42:38 Fr:138128 Sq:138128
2013-08-16 17:45:38 Fr:138129 Sq:138129
2013-08-16 17:46:07 Fr:138130 Sq:138130
2013-08-17 11:42:25 Fr:138131 Sq:138131
2013-08-17 11:44:27 Fr:138133 Sq:138133
2013-08-17 11:51:03 Fr:138134 Sq:138134
2013-08-17 11:57:41 Fr:138135 Sq:138135
2013-08-17 13:59:30 Fr:138136 Sq:138136
2013-08-17 14:38:45 Fr:138137 Sq:138137
2013-08-17 14:42:34 Fr:138138 Sq:138138
2013-08-17 14:53:35 Fr:138139 Sq:138139

Film 170
1975-11-20 23:00:00 Fr:17003 Sq:17003
1975-11-20 23:00:00 Fr:17004 Sq:17004
1975-11-20 23:00:00 Fr:17005 Sq:17005
1975-11-20 23:00:00 Fr:17006 Sq:17006
1975-11-20 23:00:00 Fr:17007 Sq:17007
2000-00-00 00:00:00 Fr:17008 Sq:17008

tulsehill
1975-11-20 23:00:00 Fr:17009 Sq:17009
1975-11-20 23:00:00 Fr:17010 Sq:17010
1975-11-20 23:00:00 Fr:17011 Sq:17011
1975-11-20 23:00:00 Fr:17012 Sq:17012
1975-11-20 23:00:00 Fr:17013 Sq:17013
1975-11-20 23:00:00 Fr:17014 Sq:17014
2000-00-00 00:00:00 Fr:17015 Sq:17015

tulsehill
2000-00-00 00:00:00 Fr:17016 Sq:17016

tulsehill
1975-11-20 23:00:00 Fr:17017 Sq:17017
2000-00-00 00:00:00 Fr:17018 Sq:17018
1975-11-20 23:00:00 Fr:17019 Sq:17019
2000-00-00 00:00:00 Fr:17020 Sq:17020
2000-00-00 00:00:00 Fr:17021 Sq:17021

tulsehill
2000-00-00 00:00:00 Fr:17022 Sq:17022
2000-00-00 00:00:00 Fr:17023 Sq:17023

petergissop
2000-00-00 00:00:00 Fr:17024 Sq:17024

lesley
2000-00-00 00:00:00 Fr:17025 Sq:17025

lesley
2000-00-00 00:00:00 Fr:17026 Sq:17026

petergissop
1975-11-20 23:00:00 Fr:17027 Sq:17027
2000-00-00 00:00:00 Fr:17028 Sq:17028
1975-11-20 23:00:00 Fr:17029 Sq:17029
1975-11-20 23:00:00 Fr:17030 Sq:17030
1975-11-20 23:00:00 Fr:17031 Sq:17031
1975-11-20 23:00:00 Fr:17032 Sq:17032
1975-11-20 23:00:00 Fr:17033 Sq:17033
1975-11-20 23:00:00 Fr:17034 Sq:17034
2000-00-00 00:00:00 Fr:17035 Sq:17035
1975-11-20 05:05:01 Fr:170ix Sq:170ix

Film 171
2000-00-00 00:00:00 Fr:17109 Sq:17109

phillawrence marieosbourne ivsarchive
2000-00-00 00:00:00 Fr:17110 Sq:17110

janetmarc ivsarchive timmarc chrisandadrian
2000-00-00 00:00:00 Fr:17111 Sq:17111

petergissop ivsarchive
2000-00-00 00:00:00 Fr:17112 Sq:17112

ivsarchive katesibley
2000-00-00 00:00:00 Fr:17113 Sq:17113

ivsarchive
2000-00-00 00:00:00 Fr:17114 Sq:17114

janerobinson ivsarchive
2000-00-00 00:00:00 Fr:17115 Sq:17115

petergissop ivsarchive
2000-00-00 00:00:00 Fr:17116 Sq:17116

tonyrobinson ivsarchive
2000-00-00 00:00:00 Fr:17117 Sq:17117

ghoulie
2000-00-00 00:00:00 Fr:17118 Sq:17118
2000-00-00 00:00:00 Fr:17119 Sq:17119
2000-00-00 00:00:00 Fr:17120 Sq:17120
2000-00-00 00:00:00 Fr:17121 Sq:17121
2000-00-00 00:00:00 Fr:17122 Sq:17122
2000-00-00 00:00:00 Fr:17123 Sq:17123
2000-00-00 00:00:00 Fr:17124 Sq:17124
2000-00-00 00:00:00 Fr:17134 Sq:17134
2000-00-00 00:00:00 Fr:17135 Sq:17135
2000-00-00 00:00:00 Fr:17136 Sq:17136
2000-00-00 00:00:00 Fr:17137 Sq:17137
1975-12-31 05:05:06 Fr:171ix Sq:171ix

Film 172
2009-02-05 23:00:00 Fr:172-1 Sq:172-1
2009-02-05 23:00:00 Fr:17200 Sq:17200
2009-02-05 23:00:00 Fr:17201 Sq:17201
2013-06-22 22:56:59 Fr:17202 Sq:17202
2013-06-22 22:57:36 Fr:17203 Sq:17203
2013-06-22 22:57:33 Fr:17204 Sq:17204
2013-06-22 22:56:55 Fr:17205 Sq:17205
2013-06-22 22:57:30 Fr:17206 Sq:17206
2009-02-05 23:00:00 Fr:17207 Sq:17207
2013-06-22 22:57:23 Fr:17208 Sq:17208
2013-06-22 22:56:48 Fr:17209 Sq:17209
2013-06-22 22:57:20 Fr:17210 Sq:17210
2013-06-22 22:57:16 Fr:17211 Sq:17211
2009-02-05 23:00:00 Fr:17212 Sq:17212
2009-02-05 23:00:00 Fr:17213 Sq:17213
2013-06-22 22:57:10 Fr:17214 Sq:17214
2013-06-22 22:57:06 Fr:17215 Sq:17215
2009-02-05 23:00:00 Fr:17216 Sq:17216
2009-02-05 23:00:00 Fr:17217 Sq:17217
2009-02-05 23:00:00 Fr:17221 Sq:17221
2014-01-31 14:28:23 Fr:172ix Sq:172ix

Film 173
2017-05-24 14:46:56 Fr:173-1 Sq:173-1
2017-05-24 14:46:55 Fr:17301 Sq:17301
2017-05-24 14:46:54 Fr:17302 Sq:17302
2017-05-24 14:46:42 Fr:17308 Sq:17308
2009-02-05 23:00:00 Fr:17309 Sq:17309
2009-02-05 23:00:00 Fr:17310 Sq:17310
2017-05-24 14:46:52 Fr:17311 Sq:17311
2009-02-05 23:00:00 Fr:17312 Sq:17312
2017-05-24 14:46:50 Fr:17313 Sq:17313
2017-05-24 14:46:49 Fr:17314 Sq:17314
2017-05-24 14:46:48 Fr:17315 Sq:17315
2017-05-24 14:46:41 Fr:17323 Sq:17323
2017-05-24 14:46:47 Fr:17324 Sq:17324
2017-05-24 14:46:47 Fr:17328 Sq:17328
2017-05-24 14:46:46 Fr:17329 Sq:17329
2017-05-24 14:46:45 Fr:17330 Sq:17330
2017-05-24 14:46:45 Fr:17331 Sq:17331
2017-05-24 14:46:44 Fr:17332 Sq:17332
2017-05-24 14:46:43 Fr:17333 Sq:17333
2017-05-24 14:46:40 Fr:17334 Sq:17334
2017-05-27 13:09:30 Fr:17335 Sq:17335
2017-05-24 14:46:43 Fr:173ix Sq:173ix
2017-05-27 13:09:22 Fr:174-1 Sq:174-1
2017-05-27 13:09:19 Fr:17400 Sq:17400
2017-05-27 13:09:26 Fr:17401 Sq:17401
2017-05-27 13:09:35 Fr:17402 Sq:17402
2009-02-05 23:00:00 Fr:17403 Sq:17403
2017-05-27 13:09:48 Fr:17404 Sq:17404
2009-02-05 23:00:00 Fr:17405 Sq:17405
2009-02-05 23:00:00 Fr:17406 Sq:17406
2009-02-05 23:00:00 Fr:17407 Sq:17407
2009-02-05 23:00:00 Fr:17408 Sq:17408
2017-05-27 13:09:49 Fr:17409 Sq:17409
2009-02-05 23:00:00 Fr:17410 Sq:17410
2017-05-27 13:09:50 Fr:17411 Sq:17411
2017-05-27 13:09:24 Fr:17412 Sq:17412
2017-05-27 13:09:18 Fr:17413 Sq:17413
2017-05-27 13:09:29 Fr:17414 Sq:17414
2017-05-27 13:09:27 Fr:17415 Sq:17415
2017-05-27 13:09:31 Fr:17416 Sq:17416
2017-05-27 13:09:38 Fr:17417 Sq:17417
2017-05-27 13:09:56 Fr:17418 Sq:17418
2009-02-05 23:00:00 Fr:17419 Sq:17419
2017-05-27 13:09:28 Fr:17420 Sq:17420
2017-05-27 13:09:47 Fr:17421 Sq:17421
2009-02-05 23:00:00 Fr:17422 Sq:17422
2017-05-27 13:09:39 Fr:17423 Sq:17423
2009-02-05 23:00:00 Fr:17424 Sq:17424
2017-05-27 13:09:50 Fr:17425 Sq:17425
2017-05-27 13:09:34 Fr:17432 Sq:17432
2017-05-27 13:09:33 Fr:17433 Sq:17433
2017-05-27 13:09:37 Fr:17434 Sq:17434
2017-05-27 13:09:40 Fr:17435 Sq:17435
2009-02-05 23:00:00 Fr:17436 Sq:17436
2017-05-27 13:09:44 Fr:17437 Sq:17437
2017-05-27 13:09:23 Fr:174ix Sq:174ix

Chenies Manor, 2017 Apr 28
2017-04-28 11:04:36 Fr:174T24 Sq:174T24
2017-04-28 11:05:24 Fr:174T25 Sq:174T25
2017-04-28 11:05:57 Fr:174T26 Sq:174T26
2017-04-28 11:07:12 Fr:174T27 Sq:174T27
2017-04-28 11:07:31 Fr:174T28 Sq:174T28
2017-04-28 11:07:48 Fr:174T30 Sq:174T30
2017-04-28 11:08:10 Fr:174T31 Sq:174T31
2017-04-28 11:08:39 Fr:174T32 Sq:174T32
2017-04-28 12:01:57 Fr:174T34 Sq:174T34
2017-04-28 12:32:58 Fr:174T35 Sq:174T35
2017-05-15 21:42:35 Fr:174T41 Sq:174T358
Yew Maze from the air
Satellite view of the Yew Maze on the Parterre. This maze is modern. A notice outside gives its planting date - 1980s as I recall. The light coloured patch in the middle is the rectangular structure seen in the next picture. It looks triangular because of heavy shadow. The website claims "its intriguing layout is based on an isocahedron [sic] pattern of interlocking-triangular shapes". (174T41)
2017-04-28 12:42:54 Fr:174T36 Sq:174T36
Looking out from the heart of the maze
Looking towards the manor house while standing on the structure in the previous photo. (174T36)
2017-04-28 12:45:53 Fr:174T37 Sq:174T37
The heart of the maze
This structure at the centre of the Yew Maze looks much older than the planting of the maze. Possibly a capped-off well head. (174T37)
2017-04-28 12:54:07 Fr:174T38 Sq:174T38
The Turf Maze in the Kitchen Garden
The manor's website calls it a "penitential maze". Prosaic, as always, Wikipedia tells us that it is an unusual design based on a painting of 1573. Built by Denys Tweddell in 1983. (174T38)
2017-04-28 15:38:42 Fr:174T40 Sq:174T40
The Kings Arms
High Street, Old Amersham. (174T40)

Film 175
2017-05-27 13:11:39 Fr:17500 Sq:17500
2009-02-06 00:00:00 Fr:17501 Sq:17501
2017-05-27 13:11:44 Fr:17502 Sq:17502
2017-05-27 13:11:41 Fr:17503 Sq:17503
2017-05-27 13:11:51 Fr:17504 Sq:17504
2017-05-27 13:11:40 Fr:17505 Sq:17505
2017-05-27 13:11:40 Fr:17506 Sq:17506
2017-05-27 13:11:48 Fr:17507 Sq:17507
2017-05-27 13:11:53 Fr:17508 Sq:17508
2017-05-27 13:11:43 Fr:17509 Sq:17509
2017-05-27 13:11:54 Fr:17510 Sq:17510
2017-05-27 13:11:49 Fr:17511 Sq:17511
2017-05-27 13:12:05 Fr:17512 Sq:17512
2017-05-27 13:11:59 Fr:17513 Sq:17513
2017-05-27 13:12:02 Fr:17514 Sq:17514
2017-05-27 13:11:45 Fr:17515 Sq:17515
2017-05-27 13:11:46 Fr:17516 Sq:17516
2017-05-27 13:11:46 Fr:17517 Sq:17517
2017-05-27 13:11:55 Fr:17518 Sq:17518
2017-05-27 13:11:58 Fr:17519 Sq:17519
2009-02-06 00:00:00 Fr:17520 Sq:17520
2017-05-27 13:11:36 Fr:17521 Sq:17521
2017-05-27 13:11:52 Fr:17522 Sq:17522
2017-05-27 13:11:35 Fr:17523 Sq:17523
2009-02-06 00:00:00 Fr:17524 Sq:17524
2017-05-27 13:11:52 Fr:17525 Sq:17525
2017-05-27 13:11:59 Fr:17526 Sq:17526
2009-02-06 00:00:00 Fr:17527 Sq:17527
2017-05-27 13:11:38 Fr:17528 Sq:17528
2017-05-27 13:11:34 Fr:17529 Sq:17529
2017-05-27 13:11:56 Fr:17530 Sq:17530
2009-02-06 00:00:00 Fr:17531 Sq:17531
2017-05-27 13:11:37 Fr:17532 Sq:17532
2017-05-27 13:11:50 Fr:17533 Sq:17533
2017-05-27 13:11:44 Fr:17534 Sq:17534
2017-05-27 13:11:56 Fr:17535 Sq:17535
2009-02-06 00:00:00 Fr:17536 Sq:17536
2017-05-27 13:12:00 Fr:17537 Sq:17537
2017-05-27 13:11:45 Fr:175ix Sq:175ix

Croydon IVS reunion 2017 May 14
2017-05-14 15:16:40 Fr:175T47 Sq:175T47
2017-05-14 16:02:04 Fr:175T48 Sq:175T48
2017-05-14 16:03:03 Fr:175T51 Sq:175T51
2017-05-14 16:03:46 Fr:175T53 Sq:175T53
2017-05-12 16:41:31 Fr:175T46 Sq:175T55
Typical view in our house - three computers - (plus the device taking the photo which is a computer) - two other devices with web-browsing capabilities: a Kindle and a mobile phone.

Film 176
2017-05-27 13:13:12 Fr:17601 Sq:17601
2017-05-27 13:12:49 Fr:17602 Sq:17602
2014-01-31 16:00:00 Fr:17603 Sq:17603
2017-05-27 13:13:03 Fr:17604 Sq:17604
2017-05-27 13:13:13 Fr:17605 Sq:17605
2014-01-31 16:00:00 Fr:17606 Sq:17606
2017-05-27 13:13:05 Fr:17607 Sq:17607
2014-01-31 16:00:00 Fr:17608 Sq:17608
2017-05-27 13:13:16 Fr:17609 Sq:17609
2017-05-27 13:13:10 Fr:17610 Sq:17610
2014-01-31 16:00:00 Fr:17611 Sq:17611
2017-05-27 13:13:11 Fr:17612 Sq:17612
2017-05-27 13:13:06 Fr:17613 Sq:17613
2014-01-31 16:00:00 Fr:17614 Sq:17614
2017-05-27 13:12:59 Fr:17615 Sq:17615
2017-05-27 13:13:08 Fr:17616 Sq:17616
2014-01-31 16:00:00 Fr:17617 Sq:17617
2017-05-27 13:12:59 Fr:17618 Sq:17618
2014-01-31 16:00:00 Fr:17619 Sq:17619
2014-01-31 16:00:00 Fr:17620 Sq:17620
2017-05-27 13:13:00 Fr:17621 Sq:17621
2017-05-27 13:13:07 Fr:17622 Sq:17622
2017-05-27 13:12:47 Fr:17623 Sq:17623
2014-01-31 16:00:00 Fr:17624 Sq:17624
2014-01-31 16:00:00 Fr:17625 Sq:17625
2017-05-27 13:13:09 Fr:17626 Sq:17626
2017-05-27 13:12:50 Fr:17627 Sq:17627
2017-05-27 13:12:52 Fr:17628 Sq:17628
2017-05-27 13:12:48 Fr:17629 Sq:17629
2014-01-31 16:00:00 Fr:17630 Sq:17630
2017-06-30 14:15:36 Fr:176300 Sq:176300
2017-05-27 13:12:53 Fr:17631 Sq:17631
2017-05-27 13:13:01 Fr:17632 Sq:17632
2014-01-31 16:00:00 Fr:17633 Sq:17633
2014-01-31 16:00:00 Fr:17634 Sq:17634
2017-05-27 13:13:05 Fr:17635 Sq:17635
2017-06-30 10:30:45 Fr:176355 Sq:176355
2017-06-30 10:32:43 Fr:176356 Sq:176356
2017-06-30 10:50:15 Fr:176357 Sq:176357
2017-06-30 10:51:21 Fr:176358 Sq:176358
2017-06-30 10:56:32 Fr:176359 Sq:176359
2014-01-31 16:00:00 Fr:17636 Sq:17636
2017-06-30 10:56:58 Fr:176360 Sq:176360
2017-06-30 10:58:25 Fr:176361 Sq:176361
2017-06-30 10:58:54 Fr:176362 Sq:176362
2017-06-30 10:59:29 Fr:176363 Sq:176363
2017-06-30 10:59:48 Fr:176364 Sq:176364
2017-06-30 11:04:20 Fr:176367 Sq:176367
2017-06-30 11:07:23 Fr:176368 Sq:176368
2017-06-30 11:12:05 Fr:176369 Sq:176369
On a whim, Lesley took this into a mirror in the hope that one of the castle's ghosts - it must have lots - would appear in the photo.
2017-06-30 11:13:59 Fr:176370 Sq:176370
2017-06-30 11:23:23 Fr:176371 Sq:176371
The house is still an home, indeed this bed is sometimes used for guests, and the family see no reason why the furniture should not be changed from time to time as in any home. This bed, of brown oak was made by Robin Furlong of Great Wolford, about 20km away, in 1992. The small table, also by him, was made in 1997.
2017-06-30 11:29:37 Fr:176373 Sq:176373
2017-06-30 11:46:41 Fr:176374 Sq:176374
2017-06-30 11:47:11 Fr:176375 Sq:176375
2017-06-30 11:48:05 Fr:176376 Sq:176376
2017-06-30 11:48:26 Fr:176377 Sq:176377
2017-06-30 11:49:30 Fr:176378 Sq:176378
2017-06-30 11:54:04 Fr:176380 Sq:176380
This is a castle so we don't have a dolls' house: we have a dolls' castle.
2017-06-30 11:58:17 Fr:176381 Sq:176381
2017-06-30 11:58:37 Fr:176382 Sq:176382
2017-06-30 12:03:35 Fr:176383 Sq:176383
2017-06-30 12:07:42 Fr:176384 Sq:176384
2017-06-30 12:08:14 Fr:176385 Sq:176385
2017-06-30 12:11:30 Fr:176386 Sq:176386
2017-06-30 12:11:59 Fr:176387 Sq:176387
A different meaning to the term "kitchen garden": part of the formal garden was the kitchen range of the castle hence these windows.
2017-06-30 12:13:03 Fr:176388 Sq:176388
2017-06-30 12:18:50 Fr:176389 Sq:176389
2017-06-30 12:19:24 Fr:176390 Sq:176390
2017-06-30 12:20:38 Fr:176391 Sq:176391
2017-06-30 12:23:45 Fr:176392 Sq:176392
The locomotive in the foreground is called Broughton Castle in memory of GWR loco 5033 Broughton Castle which worked from 1935 to 1962. The name plate is preserved in the tea room.
2017-06-30 12:25:44 Fr:176393 Sq:176393
2017-06-30 12:29:24 Fr:176394 Sq:176394
2017-06-30 12:29:41 Fr:176395 Sq:176395
2017-06-30 12:30:12 Fr:176396 Sq:176396
2017-06-30 12:31:39 Fr:176397 Sq:176397
2017-06-30 13:57:40 Fr:176398 Sq:176398
2017-06-30 14:11:19 Fr:176399 Sq:176399

Film 177
2017-05-23 00:00:32 Fr:17701 Sq:17701
2014-01-31 23:47:58 Fr:17702 Sq:17702
2017-05-23 00:00:32 Fr:17703 Sq:17703
2017-05-23 00:00:31 Fr:17704 Sq:17704
2017-05-23 00:00:56 Fr:17705 Sq:17705
2017-05-23 00:00:31 Fr:17706 Sq:17706
2017-05-23 00:00:55 Fr:17707 Sq:17707
2017-05-23 00:00:54 Fr:17708 Sq:17708
2014-01-31 23:47:57 Fr:17709 Sq:17709
2017-05-23 00:00:52 Fr:17710 Sq:17710
2017-05-23 00:00:51 Fr:17711 Sq:17711
2017-05-23 00:00:31 Fr:17712 Sq:17712
2014-01-31 23:47:58 Fr:17713 Sq:17713
2014-01-31 23:47:58 Fr:17714 Sq:17714
2017-05-23 00:00:48 Fr:17715 Sq:17715
2017-05-23 00:00:48 Fr:17716 Sq:17716
2017-05-23 00:00:47 Fr:17717 Sq:17717
2017-05-23 00:00:29 Fr:17718 Sq:17718
2017-05-23 00:00:46 Fr:17719 Sq:17719
2017-05-23 00:00:45 Fr:17720 Sq:17720
2017-05-23 00:00:44 Fr:17721 Sq:17721
2014-01-31 23:47:56 Fr:19706 Sq:177218
2017-05-23 00:00:44 Fr:17722 Sq:17722
2017-05-23 00:00:29 Fr:17723 Sq:17723
2017-05-23 00:00:43 Fr:17724 Sq:17724
2014-01-31 23:47:57 Fr:17725 Sq:17725
2017-05-23 00:00:41 Fr:17726 Sq:17726
2017-05-23 00:00:41 Fr:17727 Sq:17727
2014-01-31 23:47:57 Fr:17728 Sq:17728
2017-05-23 00:00:39 Fr:17729 Sq:17729
2017-05-23 00:00:39 Fr:17730 Sq:17730
2017-05-23 00:00:38 Fr:17731 Sq:17731
2017-05-23 00:00:37 Fr:17732 Sq:17732
2017-05-23 00:00:36 Fr:17733 Sq:17733
2014-01-31 23:47:57 Fr:17734 Sq:17734
2017-05-23 00:00:34 Fr:17735 Sq:17735
2017-05-23 00:00:34 Fr:17736 Sq:17736
2017-05-23 00:00:28 Fr:17737 Sq:17737 2017-05-23 00:00:28 Fr:17737 Sq:17737 2017-05-23 00:00:28 Fr:17737 Sq:17737
2017-05-23 00:00:33 Fr:17738 Sq:17738 2017-05-23 00:00:33 Fr:17738 Sq:17738 2017-05-23 00:00:33 Fr:17738 Sq:17738
2017-05-23 00:00:26 Fr:17739 Sq:17739

Film 178
2017-05-27 13:20:24 Fr:17800 Sq:17800
2017-05-27 13:20:22 Fr:17806 Sq:17806
2014-02-08 14:30:00 Fr:17807 Sq:17807
2017-05-27 13:20:22 Fr:17808 Sq:17808
2017-05-27 13:20:21 Fr:17809 Sq:17809
2017-05-27 13:20:27 Fr:17810 Sq:17810
2017-05-27 13:20:19 Fr:17811 Sq:17811
2017-05-27 13:20:26 Fr:17812 Sq:17812
2017-05-27 13:20:25 Fr:17813 Sq:17813
2017-05-27 13:20:18 Fr:17814 Sq:17814
2014-02-08 14:30:00 Fr:17815 Sq:17815
2014-02-08 14:30:00 Fr:17816 Sq:17816
2017-05-27 13:20:24 Fr:17817 Sq:17817
2009-02-06 00:00:00 Fr:17824 Sq:17824
2009-02-06 00:00:00 Fr:17825 Sq:17825
2009-02-06 00:00:00 Fr:17826 Sq:17826
2017-05-27 13:20:14 Fr:17827 Sq:17827
2009-02-06 00:00:00 Fr:17828 Sq:17828
2009-02-06 00:00:00 Fr:17829 Sq:17829
2017-05-27 13:19:53 Fr:17830 Sq:17830
2017-05-27 13:20:02 Fr:17831 Sq:17831
2017-05-27 13:20:03 Fr:17832 Sq:17832
2009-02-06 00:00:00 Fr:17833 Sq:17833
2017-05-27 13:19:59 Fr:17834 Sq:17834
2009-02-06 00:00:00 Fr:17835 Sq:17835
2017-05-27 13:19:56 Fr:17836 Sq:17836
2017-05-27 13:20:15 Fr:17837 Sq:17837

Film 179
2009-02-06 00:00:00 Fr:17900 Sq:17900
2017-05-27 22:39:31 Fr:17901 Sq:17901
2017-05-27 22:39:28 Fr:17902 Sq:17902
2009-02-06 00:00:00 Fr:17903 Sq:17903
2009-02-06 00:00:00 Fr:17904 Sq:17904
2009-02-06 00:00:00 Fr:17905 Sq:17905
2009-02-06 00:00:00 Fr:17906 Sq:17906
2017-05-27 22:39:33 Fr:17907 Sq:17907
2009-02-06 00:00:00 Fr:17908 Sq:17908
2017-05-27 22:39:29 Fr:17909 Sq:17909
2017-05-27 22:39:35 Fr:17910 Sq:17910
2017-05-27 22:39:35 Fr:17911 Sq:17911
2009-02-06 00:00:00 Fr:17912 Sq:17912
2017-05-27 22:39:27 Fr:17913 Sq:17913
2017-05-27 22:39:22 Fr:17922 Sq:17922
2009-02-06 00:00:00 Fr:17923 Sq:17923
2009-02-06 00:00:00 Fr:17924 Sq:17924
2017-05-27 22:39:34 Fr:17925 Sq:17925
2017-05-27 22:39:30 Fr:17926 Sq:17926
2017-05-27 22:39:36 Fr:17927 Sq:17927
2017-10-14 12:17:27 Fr:17A095 Sq:17A095
2017-10-14 12:17:43 Fr:17A096 Sq:17A096
2017-10-14 12:18:07 Fr:17A097 Sq:17A097
2017-10-14 12:18:20 Fr:17A098 Sq:17A098
2017-10-14 12:18:48 Fr:17A099 Sq:17A099
2017-10-14 12:19:09 Fr:17A100 Sq:17A100
2017-10-14 12:19:21 Fr:17A101 Sq:17A101
2017-10-14 12:19:43 Fr:17A102 Sq:17A102
2017-10-14 12:19:54 Fr:17A103 Sq:17A103
2017-10-14 12:20:08 Fr:17A104 Sq:17A104
2017-10-14 12:20:21 Fr:17A105 Sq:17A105
2017-10-14 12:20:35 Fr:17A106 Sq:17A106
2017-10-14 12:20:47 Fr:17A107 Sq:17A107
2017-10-14 12:21:06 Fr:17A108 Sq:17A108
2017-10-14 12:21:35 Fr:17A109 Sq:17A109
2017-10-14 12:21:57 Fr:17A110 Sq:17A110
2017-10-14 12:22:14 Fr:17A111 Sq:17A111
2017-10-14 12:22:28 Fr:17A112 Sq:17A112
2017-10-14 12:22:49 Fr:17A113 Sq:17A113
2017-10-14 12:23:21 Fr:17A114 Sq:17A114
2017-10-14 12:23:43 Fr:17A115 Sq:17A115

Film 188
2017-05-30 23:23:31 Fr:18813 Sq:18813
2017-05-30 23:23:55 Fr:18814 Sq:18814
2017-05-30 23:23:54 Fr:18815 Sq:18815
2017-05-30 23:23:52 Fr:18823 Sq:18823
2017-05-30 23:23:50 Fr:18829 Sq:18829
2017-05-30 23:23:47 Fr:18830 Sq:18830
2017-05-30 23:23:46 Fr:18831 Sq:18831
2017-05-30 23:23:44 Fr:18832 Sq:18832
2017-05-30 23:23:43 Fr:18833 Sq:18833
2017-05-30 23:23:30 Fr:18835 Sq:18835
2017-05-30 23:23:29 Fr:18836 Sq:18836
2017-05-30 23:23:28 Fr:18837 Sq:18837
2017-05-30 23:23:42 Fr:18838 Sq:18838
2017-05-30 23:23:41 Fr:18917 Sq:18917

Film 87A
1987-10-01 13:44:10 Fr:87A_-1 Sq:87A_-1

georgechild
2017-05-23 12:39:48 Fr:87A_-1xt Sq:87A_-1xt
1987-10-01 22:00:00 Fr:87A_00 Sq:87A_00

georgechild
1987-10-01 22:00:00 Fr:87A_01 Sq:87A_01
1987-10-01 22:00:00 Fr:87A_02 Sq:87A_02

georgechild
1987-10-01 22:00:00 Fr:87A_03 Sq:87A_03
1987-10-01 22:00:00 Fr:87A_04 Sq:87A_04
1987-10-01 22:00:00 Fr:87A_05 Sq:87A_05
1987-10-01 22:00:00 Fr:87A_06 Sq:87A_06
1987-10-01 22:00:00 Fr:87A_07 Sq:87A_07
1987-10-01 22:00:00 Fr:87A_08 Sq:87A_08
1987-10-01 22:00:00 Fr:87A_09 Sq:87A_09
1987-10-01 22:00:00 Fr:87A_10 Sq:87A_10
1987-10-01 22:00:00 Fr:87A_11 Sq:87A_11
1987-10-01 22:00:00 Fr:87A_12 Sq:87A_12
1987-10-01 22:00:00 Fr:87A_13 Sq:87A_13
1987-10-01 22:00:00 Fr:87A_14 Sq:87A_14
1987-10-01 22:00:00 Fr:87A_15 Sq:87A_15
1987-10-01 22:00:00 Fr:87A_16 Sq:87A_16
1987-10-01 22:00:00 Fr:87A_17 Sq:87A_17
1987-10-01 22:00:00 Fr:87A_18 Sq:87A_18

georgechild
1987-10-01 22:00:00 Fr:87A_19 Sq:87A_19
1987-10-01 22:00:00 Fr:87A_20 Sq:87A_20

sunset
1987-10-01 22:00:00 Fr:87A_21 Sq:87A_21

sunset
1987-10-01 22:00:00 Fr:87A_22 Sq:87A_22

georgechild
1987-10-01 22:00:00 Fr:87A_23 Sq:87A_23

georgechild
1987-10-01 22:00:00 Fr:87A_24 Sq:87A_24
1987-10-01 22:00:00 Fr:87A_25 Sq:87A_25
1987-10-01 22:00:00 Fr:87A_26 Sq:87A_26

georgechild
1987-10-01 22:00:00 Fr:87A_27 Sq:87A_27

georgechild
1987-10-01 22:00:00 Fr:87A_28 Sq:87A_28
1987-10-01 22:00:00 Fr:87A_29 Sq:87A_29

windmills
1987-10-01 22:00:00 Fr:87A_30 Sq:87A_30
1987-10-01 22:00:00 Fr:87A_31 Sq:87A_31
1987-10-01 22:00:00 Fr:87A_32 Sq:87A_32

johnbatchelor rosalind batchelorpeter batchelorcharlotte
1987-10-01 22:00:00 Fr:87A_33 Sq:87A_33

lesley rosalind batchelorpeter batchelorcharlotte georgechild
1987-10-01 22:00:00 Fr:87A_34 Sq:87A_34

georgechild
1987-10-01 22:00:00 Fr:87A_35 Sq:87A_35
1987-10-01 22:00:00 Fr:87A_36 Sq:87A_36

georgechild
1987-10-01 22:00:00 Fr:87A_37 Sq:87A_37

Film bwa
2000-00-00 00:00:00 Fr:bwa01 Sq:bwa01

canalholiday
2000-00-00 00:00:00 Fr:bwa02 Sq:bwa02

canalholiday
2000-00-00 00:00:00 Fr:bwa03 Sq:bwa03

canalholiday
2000-00-00 00:00:00 Fr:bwa04 Sq:bwa04

canalholiday
2000-00-00 00:00:00 Fr:bwa05 Sq:bwa05

canalholiday
2000-00-00 00:00:00 Fr:bwa06 Sq:bwa06

canalholiday
2000-00-00 00:00:00 Fr:bwa07 Sq:bwa07

canalholiday
2000-00-00 00:00:00 Fr:bwa08 Sq:bwa08

canalholiday
2000-00-00 00:00:00 Fr:bwa09 Sq:bwa09

canalholiday
2000-00-00 00:00:00 Fr:bwa10 Sq:bwa10

canalholiday
2000-00-00 00:00:00 Fr:bwa11 Sq:bwa11

canalholiday
2000-00-00 00:00:00 Fr:bwa12 Sq:bwa12

canalholiday
2000-00-00 00:00:00 Fr:bwa13 Sq:bwa13

canalholiday
2000-00-00 00:00:00 Fr:bwa14 Sq:bwa14

canalholiday
2000-00-00 00:00:00 Fr:bwa15 Sq:bwa15

canalholiday
2000-00-00 00:00:00 Fr:bwa16 Sq:bwa16

canalholiday
2000-00-00 00:00:00 Fr:bwa17 Sq:bwa17

canalholiday
2000-00-00 00:00:00 Fr:bwa18 Sq:bwa18

canalholiday
2000-00-00 00:00:00 Fr:bwa19 Sq:bwa19

canalholiday
1977-04-09 10:30:48 Fr:bwa20 Sq:bwa20
2000-00-00 00:00:00 Fr:bwa21 Sq:bwa21

canalholiday
2000-00-00 00:00:00 Fr:bwa22 Sq:bwa22

canalholiday
2000-00-00 00:00:00 Fr:bwa23 Sq:bwa23

canalholiday
2000-00-00 00:00:00 Fr:bwa24 Sq:bwa24

canalholiday
2000-00-00 00:00:00 Fr:bwa25 Sq:bwa25

canalholiday
2000-00-00 00:00:00 Fr:bwa26 Sq:bwa26

canalholiday
2000-00-00 00:00:00 Fr:bwa27 Sq:bwa27

canalholiday
2000-00-00 00:00:00 Fr:bwa28 Sq:bwa28

canalholiday
1977-04-09 10:57:06 Fr:bwa29 Sq:bwa29
2000-00-00 00:00:00 Fr:bwa30 Sq:bwa30

canalholiday
2000-00-00 00:00:00 Fr:bwa31 Sq:bwa31

canalholiday
2000-00-00 00:00:00 Fr:bwa32 Sq:bwa32

canalholiday
2000-00-00 00:00:00 Fr:bwa33 Sq:bwa33

canalholiday
2000-00-00 00:00:00 Fr:bwa34 Sq:bwa34

canalholiday
2000-00-00 00:00:00 Fr:bwa35 Sq:bwa35

canalholiday
2000-00-00 00:00:00 Fr:bwa36 Sq:bwa36

canalholiday
1977-04-09 10:57:07 Fr:bwa37 Sq:bwa37

canalholiday
2017-07-03 17:42:03 Fr:croa41 Sq:croa41
2017-07-03 17:42:03 Fr:croa42 Sq:croa42
2017-07-03 17:42:08 Fr:croa43 Sq:croa43
2017-07-03 17:42:07 Fr:croa44 Sq:croa44
2017-07-03 17:42:07 Fr:croa45 Sq:croa45
2017-07-03 17:42:03 Fr:croa46 Sq:croa46
2017-07-03 17:42:08 Fr:croa47 Sq:croa47
2017-07-03 17:42:06 Fr:croa48 Sq:croa48
2017-07-03 17:42:04 Fr:croa49 Sq:croa49
2017-07-03 17:42:06 Fr:croa50 Sq:croa50
2017-07-03 17:42:05 Fr:croa51 Sq:croa51
2017-07-03 17:42:05 Fr:croa52 Sq:croa52
2017-07-03 17:42:08 Fr:croa53 Sq:croa53
2017-07-03 17:42:06 Fr:croa68 Sq:croa68

Friends House 1978
2017-05-30 23:23:53 Fr:18821 Sq:FH18821
2017-05-30 23:23:41 Fr:20717 Sq:FH20717
2017-05-30 23:23:40 Fr:20724 Sq:FH20724
The banner says Quaker Peace Dance
2017-05-30 23:23:39 Fr:20728 Sq:FH20728
1978-01-01 00:00:00 Fr:18735 Sq:FHAG0

friendshouse
1978-01-01 00:00:00 Fr:FHAG1 Sq:FHAG1

friendshouse
1978-01-01 00:00:00 Fr:FHAG2 Sq:FHAG2

friendshouse
1978-01-01 00:00:00 Fr:FHAG3 Sq:FHAG3

friendshouse
1978-01-01 00:00:00 Fr:FHAG4 Sq:FHAG4

friendshouse
1978-01-01 00:00:00 Fr:FHAG5 Sq:FHAG5

friendshouse
1978-01-01 00:00:00 Fr:FHAG6 Sq:FHAG6

friendshouse
1978-01-01 00:00:00 Fr:FHAG7 Sq:FHAG7

friendshouse
1978-01-01 00:00:00 Fr:FHAG8 Sq:FHAG8

friendshouse
1978-01-01 00:00:00 Fr:FHAG9 Sq:FHAG9

michaelhutchinson peternorris friendshouse
1978-01-01 00:00:00 Fr:FHAH1 Sq:FHAH1

davidgrey georgehgorman chrislawson friendshouse
1978-01-01 00:00:00 Fr:FHAH2 Sq:FHAH2

davidgrey georgehgorman chrislawson friendshouse
1978-01-01 00:00:00 Fr:FHAH3 Sq:FHAH3

davidgrey georgehgorman chrislawson friendshouse
1978-01-01 00:00:00 Fr:FHAH4 Sq:FHAH4

davidgrey georgehgorman chrislawson friendshouse
1978-01-01 00:00:00 Fr:FHAH5 Sq:FHAH5

davidgrey georgehgorman chrislawson friendshouse
1978-01-01 00:00:00 Fr:FHAH6 Sq:FHAH6

davidgrey georgehgorman chrislawson friendshouse
1978-01-01 00:00:00 Fr:FHAL00 Sq:FHAL00

friendshouse
1978-01-01 00:00:00 Fr:FHAL01 Sq:FHAL01

edwardhmilligan arthurwhite friendshouse
2017-05-30 23:23:38 Fr:FHAL02 Sq:FHAL02
2017-05-30 23:23:37 Fr:FHAL03 Sq:FHAL03
1978-01-01 00:00:00 Fr:FHAL04 Sq:FHAL04

edwardhmilligan arthurwhite friendshouse
2017-05-30 23:23:37 Fr:FHAL05 Sq:FHAL05
1978-01-01 00:00:00 Fr:FHAL06 Sq:FHAL06

friendshouse
2017-05-30 23:23:34 Fr:FHAL07 Sq:FHAL07
2017-05-30 23:23:27 Fr:FHAL08 Sq:FHAL08

mollygrubb murielseeby friendshouse
2017-05-30 23:23:26 Fr:FHAL09 Sq:FHAL09

mollygrubb murielseeby friendshouse
1978-01-01 00:00:00 Fr:FHAL10 Sq:FHAL10
Two volunteers in the Library
mollygrubb murielseeby friendshouse
2017-05-30 23:23:33 Fr:FHAL11 Sq:FHAL11
1978-01-01 00:00:00 Fr:FHAL12 Sq:FHAL12

friendshouse
2017-05-30 23:23:32 Fr:FHAL21 Sq:FHAL21
2017-05-30 23:23:25 Fr:FHAL22 Sq:FHAL22
2017-05-30 23:23:56 Fr:FHAL23 Sq:FHAL23
1978-01-01 00:00:00 Fr:FHAPs1 Sq:FHAPs1

friendshouse
1978-01-01 00:00:00 Fr:FHAPS2 Sq:FHAPS2

friendshouse
1978-01-01 00:00:00 Fr:FHAPS3 Sq:FHAPS3

friendshouse
1978-01-01 00:00:00 Fr:FHAR1 Sq:FHAR1

friendshouse
1978-01-01 00:00:00 Fr:FHAR2 Sq:FHAR2

friendshouse
1978-01-01 00:00:00 Fr:FHAR3 Sq:FHAR3

friendshouse
1978-01-01 00:00:00 Fr:FHAR4 Sq:FHAR4

friendshouse
1978-01-01 00:00:00 Fr:FHAR5 Sq:FHAR5

friendshouse
1978-01-01 00:00:00 Fr:FHAR6 Sq:FHAR6

friendshouse
1978-01-01 00:00:00 Fr:FHCf1 Sq:FHCf1

friendshouse
1978-01-01 00:00:00 Fr:FHCf2 Sq:FHCf2
On the right Amy
amyfromantigua friendshouse
2017-05-24 20:30:40 Fr:FHCf3 Sq:FHCf3
1978-01-01 00:00:00 Fr:FH_CH Sq:FH_CH
Craig Horle was doing research in the Library. In 2007 he was still selling his own and other people's books.
craighorle friendshouse
1978-01-01 00:00:00 Fr:18736 Sq:FH_CH3
Craig Horle
craighorle friendshouse

George as a baby
2017-05-28 18:17:31 Fr:GBa000 Sq:GBa000
2017-05-29 11:12:33 Fr:GBa001 Sq:GBa001
2017-05-28 18:17:16 Fr:GBa002 Sq:GBa002
2017-05-28 18:17:27 Fr:GBa003 Sq:GBa003
2017-05-28 18:17:30 Fr:GBa004 Sq:GBa004
2014-02-26 23:00:00 Fr:GBa004cr Sq:GBa004cr
2017-05-28 18:17:21 Fr:GBa005 Sq:GBa005
2017-05-28 18:17:19 Fr:GBa006 Sq:GBa006
2017-05-28 18:17:22 Fr:GBa007 Sq:GBa007
2017-05-28 18:17:25 Fr:GBa008 Sq:GBa008
2017-05-28 18:17:28 Fr:GBa009 Sq:GBa009
2014-02-26 23:00:00 Fr:GBa009cr Sq:GBa009cr
2017-05-28 18:17:17 Fr:GBa010 Sq:GBa010
2017-05-28 18:17:29 Fr:GBa011 Sq:GBa011
2017-05-28 18:17:20 Fr:GBa012 Sq:GBa012
2017-05-29 11:12:34 Fr:GBa013 Sq:GBa013
2017-05-28 18:17:13 Fr:GBa014 Sq:GBa014
2017-05-28 18:17:24 Fr:GBa015 Sq:GBa015
2017-05-28 18:17:26 Fr:GBa016 Sq:GBa016
2014-02-26 23:00:00 Fr:GBa016cr Sq:GBa016cr
2017-05-28 18:17:30 Fr:GBa017 Sq:GBa017
2017-05-28 18:17:12 Fr:GBa018 Sq:GBa018
2017-05-28 18:17:23 Fr:GBa019 Sq:GBa019
2017-05-28 18:17:18 Fr:GBa020 Sq:GBa020
2017-05-28 18:17:19 Fr:GBa021 Sq:GBa021

Film hfa
2017-05-23 13:27:51 Fr:hfa_01 Sq:hfa_01
2017-05-23 13:27:50 Fr:hfa_02 Sq:hfa_02
2017-05-23 13:27:49 Fr:hfa_03 Sq:hfa_03
2017-05-23 13:27:49 Fr:hfa_04 Sq:hfa_04
2017-05-23 13:27:49 Fr:hfa_05 Sq:hfa_05
2017-05-23 13:27:48 Fr:hfa_06 Sq:hfa_06
2017-05-23 13:27:48 Fr:hfa_07 Sq:hfa_07
2017-05-23 13:27:47 Fr:hfa_08 Sq:hfa_08
2017-05-23 13:27:47 Fr:hfa_09 Sq:hfa_09
2017-05-23 13:27:46 Fr:hfa_10 Sq:hfa_10
2017-05-23 13:27:46 Fr:hfa_11 Sq:hfa_11
2017-05-23 13:27:45 Fr:hfa_12 Sq:hfa_12
2017-05-23 13:27:45 Fr:hfa_13 Sq:hfa_13
2017-05-23 13:27:44 Fr:hfa_14 Sq:hfa_14
2017-05-23 13:27:44 Fr:hfa_15 Sq:hfa_15
2017-05-23 13:27:43 Fr:hfa_16 Sq:hfa_16
2017-05-23 13:27:43 Fr:hfa_17 Sq:hfa_17
2017-05-23 13:27:40 Fr:hfa_18 Sq:hfa_18
2017-05-23 13:27:40 Fr:hfa_19 Sq:hfa_19
2017-05-23 13:27:39 Fr:hfa_20 Sq:hfa_20
2017-05-23 13:27:39 Fr:hfa_21 Sq:hfa_21
2017-05-23 13:27:39 Fr:hfa_22 Sq:hfa_22
2017-05-23 13:27:38 Fr:hfa_23 Sq:hfa_23
2017-05-23 13:27:38 Fr:hfa_24 Sq:hfa_24
2017-05-23 13:27:37 Fr:hfa_25 Sq:hfa_25
2017-05-23 13:27:37 Fr:hfa_26 Sq:hfa_26
2017-05-23 13:27:51 Fr:hfa_27 Sq:hfa_27

photos by Roly Lishman
1966-06-10 23:00:00 Fr:jrl001 Sq:jrl001

roger themill
1966-06-10 23:00:00 Fr:jrl002 Sq:jrl002

roger themill
1966-06-10 23:00:00 Fr:jrl003 Sq:jrl003

roger themill
1966-06-10 23:00:00 Fr:jrl004 Sq:jrl004

roger themill
1966-06-10 23:00:00 Fr:jrl005 Sq:jrl005

roger themill
1966-06-10 23:00:00 Fr:jrl006 Sq:jrl006

roger themill
1966-06-11 23:00:00 Fr:jrl007 Sq:jrl007

roger themill
1966-06-11 23:00:00 Fr:jrl008 Sq:jrl008

roger themill
1966-11-19 00:00:00 Fr:jrl009 Sq:jrl009

roger cambridge hilarypickles matchstickcubes
1966-11-19 00:00:00 Fr:jrl010 Sq:jrl010

roger cambridge hilarypickles
1966-11-19 00:00:00 Fr:jrl011 Sq:jrl011

roger cambridge
1966-11-19 00:00:00 Fr:jrl012 Sq:jrl012

roger cambridge
1966-11-19 00:00:00 Fr:jrl013 Sq:jrl013

roger cambridge hilarypickles
1966-11-19 00:00:00 Fr:jrl014 Sq:jrl014

roger cambridge hilarypickles
1966-11-19 00:00:00 Fr:jrl015 Sq:jrl015

roger cambridge
1966-12-31 00:00:00 Fr:jrl016 Sq:jrl016

petereccles woodbrookenewyeargathering
1966-12-31 00:00:00 Fr:jrl017 Sq:jrl017

woodbrookenewyeargathering
1966-12-31 00:00:00 Fr:jrl018 Sq:jrl018

woodbrookenewyeargathering
1967-01-02 00:00:00 Fr:jrl019 Sq:jrl019

rayewooder woodbrookenewyeargathering joefordrogersfirstcar
1967-01-02 00:00:00 Fr:jrl020 Sq:jrl020

rayewooder woodbrookenewyeargathering joefordrogersfirstcar
1967-01-02 00:00:00 Fr:jrl021 Sq:jrl021

woodbrookenewyeargathering joefordrogersfirstcar
1967-01-19 00:00:00 Fr:jrl022 Sq:jrl022

petereccles
1967-01-19 00:00:00 Fr:jrl023 Sq:jrl023

roger jamesmalcolmson
1967-01-19 00:00:00 Fr:jrl024 Sq:jrl024
1967-01-19 00:00:00 Fr:jrl025 Sq:jrl025

roger
1967-01-19 00:00:00 Fr:jrl026 Sq:jrl026
Sally Wyon asleep
sallywyon
1967-01-19 00:00:00 Fr:jrl027 Sq:jrl027

roger sallywyon ursulafuller
1967-01-19 00:00:00 Fr:jrl028 Sq:jrl028

roger hilarypickles
1967-01-19 00:00:00 Fr:jrl029 Sq:jrl029

hilarypickles
1967-01-22 00:00:00 Fr:jrl030 Sq:jrl030

roger
1967-01-22 00:00:00 Fr:jrl031 Sq:jrl031

roger
1967-01-22 00:00:00 Fr:jrl032 Sq:jrl032

roger
1967-01-22 00:00:00 Fr:jrl033 Sq:jrl033

roger ursulafuller martinhuxley

Little Gidding
2017-05-23 00:36:51 Fr:lg111 Sq:lg111
2017-05-23 00:36:49 Fr:lg112 Sq:lg112
2017-05-23 00:36:42 Fr:lg113 Sq:lg113
2017-05-23 00:37:21 Fr:lg114 Sq:lg114

Telephone exchanges
2017-05-27 14:23:13 Fr:14620 Boothdale Max (Kelsall temp) 71 04 03 Sq:phbboo
2017-05-27 14:23:20 Fr:14608 Caerleon, etc 71 03 15 Sq:phbcae
14608
Caerleon, etc. 71 03 15
2017-05-27 14:23:23 Fr:14132 Crafts Hill Sq:phbcra
2017-05-27 13:20:04 Fr:17801 Sq:phbdal
2017-05-27 14:23:20 Fr:13414 Evelode Sq:phbeve
2017-05-27 22:39:24 Fr:17928 Sq:phbgip
2017-05-27 14:23:29 Fr:11420 Green Hills Sq:phbgre1
2017-05-27 14:23:28 Fr:13619 Green Hills Sq:phbgre2
2017-05-27 14:23:22 Fr:14210 Greenway and Tean Sq:phbgret
2017-05-27 14:23:21 Fr:14222 Kendal Sq:phbken
2017-05-27 14:23:27 Fr:13624 Kentmere but kiosk is on Staveley Sq:phbkent
2017-05-27 14:23:26 Fr:13625 Kentmere Sq:phbkenu
2017-05-27 14:23:25 Fr:14004 Loddon Vale (Twyford temp) Sq:phblod
2017-05-27 14:23:28 Fr:11523 Madeley Sq:phbmad
Madeley UAX gas explosion
A better view. Happened on 1968 Dec 31 according to this page in Hansard.
2017-05-27 14:23:16 Fr:14115 Newbury Sq:phbnew
2017-05-27 14:23:24 Fr:14116 Newbury old and new Sq:phbnewo
2017-05-27 14:23:25 Fr:14114 Newbury tandem Sq:phbnewt
2017-05-27 14:23:30 Fr:14621 Tarvin TXE2 old behind 71 04 03 Sq:phbtar
2017-05-27 14:23:14 Fr:14211 Tean TXE2 Sq:phbtea

Dialling codes
2009-02-06 00:00:00 Fr:17819 Sq:phc17819
2009-02-06 00:00:00 Fr:17820 Sq:phc17820
2009-02-06 00:00:00 Fr:17821 Sq:phc17821
2009-02-06 00:00:00 Fr:17822 Sq:phc17822
2009-02-06 00:00:00 Fr:17823 Sq:phc17823
2017-05-27 14:23:47 Fr:12300 Attleborough Sq:phcatt
Attleborough
12300
2017-05-27 14:23:49 Fr:14131 Bagworth Sq:phcbag
Bagworth
14131
2017-05-27 14:23:43 Fr:12113 Banwell Sq:phcban
Banwell
12113
2017-05-27 14:23:48 Fr:12118 Berkswell Sq:phcberk
Berkswell
12118
2017-05-27 14:23:42 Fr:12915 Bidford on Avon Sq:phcbid
Bidford on Avon
12915
2017-05-27 14:23:46 Fr:12303 Billingham Sq:phcbil
Billingham
12303
2017-05-27 14:23:44 Fr:12530 Birmingham (upper) Sq:phcbir1
Birmingham (upper)
12530
2017-05-27 14:23:45 Fr:12529 Birmingham (lower) Sq:phcbir2
Birmingham (lower)
12529
2009-02-06 00:00:00 Fr:17805 Sq:phccal
Callander
17805
2017-05-27 14:23:48 Fr:11617 Cambridge Sq:phccam
Cambridge
11617
2017-05-29 21:52:28 Fr:13221 Sq:phccar
Carmarthen
13221
2017-05-29 21:52:32 Fr:12020 Sq:phccas
Castor
12020
2017-05-29 21:52:23 Fr:14117 Sq:phccho
Cholsey
14117
2017-05-29 21:52:35 Fr:11901 Sq:phcchsto
Church Stoke
11901
2017-05-29 21:52:33 Fr:11903 Sq:phcchstr
Church Stretton
11903
2017-05-29 21:52:29 Fr:12903 Sq:phccol
Colchester
12903
2017-05-29 21:52:38 Fr:14219 Sq:phccor
Corbridge
14219
2017-05-29 21:52:34 Fr:11902 Sq:phccra
Craven Arms
11902
2009-02-06 00:00:00 Fr:17802 Sq:phcdal1
Dalmally
17802
2009-02-06 00:00:00 Fr:17803 Sq:phcdal2
Dalmally
17803
2009-02-06 00:00:00 Fr:17804 Sq:phcdal3
Dalmally
17804
2017-05-29 21:52:40 Fr:12212 Sq:phcdon
Doncaster
12212
2017-05-29 21:52:24 Fr:13622 Sq:phcdor
Dorking
15622
2017-05-29 21:52:22 Fr:15620 Sq:phcdyma
Dymchurch A
15620
2017-05-29 21:52:37 Fr:15621 Sq:phcdymb
Dymchurch B
15621
2017-05-29 21:52:27 Fr:13422 Sq:phcedi
Edinburgh, 1967 Dec
13422
2017-05-29 21:52:39 Fr:12233 Sq:phcely
Ely
12233
2017-05-29 21:52:31 Fr:12108 Sq:phcens
Enstone
12108
2017-05-29 21:52:36 Fr:1fair Sq:phcfair
Fairford
1fair
2017-05-29 21:52:39 Fr:12223 Sq:phcfak
Fakenham
12223
2017-05-29 21:52:26 Fr:13424 Sq:phcgoo
Goole or Thorne (6fig)
13424
2017-05-29 21:52:41 Fr:12119 Sq:phchar
Harrogate
12119
2017-05-29 21:52:25 Fr:13503 Sq:phchig
Highclere
13503
2017-05-29 21:52:30 Fr:12304 Sq:phchor
Horncastle
12304 Slide has note "9 = Lincoln" - non-local but being used to access a group dependant on Lincoln and local to Horncastle.
2017-05-29 21:52:36 Fr:11519 Sq:phckirs
Kirkby Stephen
11519 Photoshopped in two parts to make it almost readable.
2009-02-06 00:00:00 Fr:17818 Sq:phckirw
Kirkwhelpington
17818

pict
2014-10-04 12:00:00 Fr:pict0129 Sq:pict0129
2017-05-23 23:58:30 Fr:pict0130 Sq:pict0130
2014-10-04 12:00:00 Fr:pict0131 Sq:pict0131
2014-10-04 12:00:00 Fr:pict0132 Sq:pict0132
2017-05-23 23:58:27 Fr:pict0133 Sq:pict0133
2017-05-23 23:58:26 Fr:pict0134 Sq:pict0134
2017-05-23 23:58:26 Fr:pict0135 Sq:pict0135
2017-05-23 23:58:24 Fr:pict0136 Sq:pict0136
2014-10-04 12:00:00 Fr:pict0137 Sq:pict0137
2014-10-04 12:00:00 Fr:pict0138 Sq:pict0138
2017-05-23 23:58:36 Fr:pict0139 Sq:pict0139

Quaker 21st century
2003-06-15 14:05:40 Fr:036158 Sq:qa036158
2003-06-15 15:04:23 Fr:036159 Sq:qa036159
2003-06-15 15:17:42 Fr:036160 Sq:qa036160
2003-06-15 15:18:55 Fr:036161 Sq:qa036161
2003-06-15 15:21:40 Fr:036163 Sq:qa036163
2003-06-15 15:25:24 Fr:036164 Sq:qa036164
2003-06-15 15:47:41 Fr:036166 Sq:qa036166
2003-06-15 15:52:11 Fr:036167 Sq:qa036167
2011-05-02 15:00:39 Fr:115008 Sq:qa115008
2011-05-25 16:22:40 Fr:115280 Sq:qa115280
2011-05-25 16:33:25 Fr:115283 Sq:qa115283
2011-06-26 16:04:50 Fr:116289 Sq:qa116289
2011-06-26 17:07:45 Fr:116290 Sq:qa116290
2011-08-29 12:08:10 Fr:118342 Sq:qa118342
2011-08-29 12:08:15 Fr:118343 Sq:qa118343
Sutton Environmental Fair 2011
2011-08-29 12:08:15 Fr:118343c2 Sq:qa118343c2
2011-08-29 12:08:15 Fr:118343c3 Sq:qa118343c3
2011-08-29 12:08:15 Fr:118343cr Sq:qa118343cr
2011-08-29 13:18:57 Fr:118344 Sq:qa118344
2011-08-29 15:27:17 Fr:118345 Sq:qa118345
2011-08-29 15:51:14 Fr:118347 Sq:qa118347
2011-08-29 15:51:20 Fr:118348 Sq:qa118348

Ursula
2016-02-12 22:39:18 Fr:ursu01 Sq:ursu01
2016-02-12 22:39:15 Fr:ursu02 Sq:ursu02
2016-02-12 22:39:13 Fr:ursu03 Sq:ursu03
2016-02-12 22:39:13 Fr:ursu04 Sq:ursu04
2016-02-12 22:39:12 Fr:ursu05 Sq:ursu05
2016-02-12 22:39:07 Fr:ursu06 Sq:ursu06
2016-02-12 22:39:20 Fr:ursu07 Sq:ursu07

Wey Navigation
2017-05-23 23:23:00 Fr:Wey-1 Sq:Wey-1
2017-05-23 23:23:00 Fr:Wey-2 Sq:Wey-2
2017-05-23 23:23:13 Fr:Wey-2cr Sq:Wey-2cr
2017-05-23 23:23:12 Fr:Wey00 Sq:Wey00
2017-05-23 23:23:11 Fr:Wey01 Sq:Wey01
2017-05-23 23:23:11 Fr:Wey02 Sq:Wey02
2017-05-23 23:23:11 Fr:Wey03 Sq:Wey03
2017-05-23 23:23:10 Fr:Wey04 Sq:Wey04
2017-05-23 23:23:10 Fr:Wey05 Sq:Wey05
2017-05-23 23:23:10 Fr:Wey06 Sq:Wey06
2017-05-23 23:23:09 Fr:Wey07 Sq:Wey07
2017-05-23 23:23:22 Fr:Wey08 Sq:Wey08
2017-05-23 23:23:08 Fr:Wey09 Sq:Wey09
2017-05-23 23:23:08 Fr:Wey10 Sq:Wey10
2017-05-23 23:23:08 Fr:Wey11 Sq:Wey11
2017-05-23 23:23:07 Fr:Wey12 Sq:Wey12
2017-05-23 23:23:07 Fr:Wey13 Sq:Wey13
2017-05-23 23:23:07 Fr:Wey14 Sq:Wey14
2017-05-23 23:23:07 Fr:Wey15 Sq:Wey15
2017-05-23 23:23:21 Fr:Wey16 Sq:Wey16
2017-05-23 23:23:06 Fr:Wey17 Sq:Wey17
2017-05-23 23:23:06 Fr:Wey17ps Sq:Wey17ps
2017-05-23 23:23:06 Fr:Wey18 Sq:Wey18
2017-05-23 23:23:20 Fr:Wey19 Sq:Wey19
2017-05-23 23:23:05 Fr:Wey20 Sq:Wey20
2017-05-23 23:23:17 Fr:Wey21 Sq:Wey21
2017-05-23 23:23:16 Fr:Wey22 Sq:Wey22
2017-05-23 23:23:05 Fr:Wey22cr Sq:Wey22cr
2017-05-23 23:23:04 Fr:Wey23 Sq:Wey23
2017-05-23 23:23:04 Fr:Wey24 Sq:Wey24
2017-05-23 23:23:03 Fr:Wey25 Sq:Wey25
2017-05-23 23:23:02 Fr:Wey26 Sq:Wey26
2017-05-23 23:23:02 Fr:Wey27 Sq:Wey27
2017-05-23 23:23:01 Fr:Wey28 Sq:Wey28
2017-05-23 23:23:01 Fr:Wey29 Sq:Wey29
2017-05-23 23:23:15 Fr:Wey30 Sq:Wey30
2017-05-23 23:23:14 Fr:Wey31 Sq:Wey31
2017-05-23 23:23:13 Fr:Wey32 Sq:Wey32
2017-05-23 23:23:01 Fr:Wey33 Sq:Wey33
2017-05-23 23:23:00 Fr:Wey34 Sq:Wey34

York and Blackpool
2006-12-22 21:12:39 Fr:06C206 Sq:yb06C206
2006-12-22 21:14:44 Fr:06C207 Sq:yb06C207
2006-12-25 13:10:54 Fr:06C247 Sq:yb06C247
2006-12-25 13:11:34 Fr:06C248 Sq:yb06C248
2006-12-25 13:48:52 Fr:06C249 Sq:yb06C249
2006-12-28 11:00:10 Fr:06C282 Sq:yb06C282
2006-12-28 11:06:22 Fr:06C284 Sq:yb06C284
2006-12-28 11:12:13 Fr:06C285 Sq:yb06C285
2006-12-28 11:53:13 Fr:06C286 Sq:yb06C286
2013-01-01 17:23:56 Fr:131075 Sq:yb131075
2013-01-01 17:23:56 Fr:131075x Sq:yb131075x
2013-10-27 12:14:10 Fr:13A280 Sq:yb13A280
2013-10-27 12:20:50 Fr:13A281 Sq:yb13A281
2013-10-27 12:23:12 Fr:13A283 Sq:yb13A283
2013-10-27 12:46:22 Fr:13A285 Sq:yb13A285

Intentional errors
for program testing
2000-00-00 00:00:00 Fr:z09311 Sq:zbadfid
2017-05-28 18:17:11 Fr:GBa901 Sq:Zboth
2017-05-29 01:00:00 Fr:09210 Sq:znotflickr

Navigation

un-annotated
like this
redisplay with: 367 519 734 1038 1468 items
full screen     search     index
$_COOKIE['d3w_scale']=1,  $_COOKIE['em2px']=14,  $_COOKIE['vpt_dims']=×,  $_COOKIE['pathome']=

RWH galleries on this site | all RWH holiday snaps | RWH home